| time (UTC) | temp C | wind direction | speed KPH | gust KPH | rain 1hr cm | rain 24hr cm | rain mn cm | humidity % | barometer mb |
| 20260902044337 | 21 | 179 | 4.8 | 16.1 | 0.00 | 0.00 | 0.00 | 69 | 1017.7 |
| 20260902044140 | 21 | 203 | 6.4 | 17.7 | 0.00 | 0.00 | 0.00 | 69 | 1017.7 |
| 20260902043936 | 22 | 244 | 6.4 | 17.7 | 0.00 | 0.00 | 0.00 | 69 | 1017.7 |
| 20260902043738 | 22 | 233 | 8.0 | 17.7 | 0.00 | 0.00 | 0.00 | 70 | 1017.7 |
| 20260902043535 | 22 | 185 | 6.4 | 17.7 | 0.00 | 0.00 | 0.00 | 70 | 1017.7 |
| 20260902043335 | 22 | 228 | 8.0 | 17.7 | 0.00 | 0.00 | 0.00 | 69 | 1017.6 |
| 20260902043140 | 22 | 219 | 6.4 | 16.1 | 0.00 | 0.00 | 0.00 | 69 | 1017.6 |
| 20260902042935 | 22 | 166 | 8.0 | 16.1 | 0.00 | 0.00 | 0.00 | 69 | 1017.5 |
| 20260902042735 | 22 | 155 | 8.0 | 16.1 | 0.00 | 0.00 | 0.00 | 69 | 1017.6 |
| 20260902042538 | 22 | 207 | 8.0 | 16.1 | 0.00 | 0.00 | 0.00 | 70 | 1017.5 |
| 20260902042342 | 22 | 226 | 6.4 | 19.3 | 0.00 | 0.00 | 0.00 | 69 | 1017.4 |
| 20260902042144 | 22 | 195 | 6.4 | 19.3 | 0.00 | 0.00 | 0.00 | 69 | 1017.5 |
| 20260902041938 | 22 | 231 | 8.0 | 19.3 | 0.00 | 0.00 | 0.00 | 69 | 1017.4 |
| 20260902041736 | 22 | 188 | 8.0 | 20.9 | 0.00 | 0.00 | 0.00 | 69 | 1017.4 |
| 20260902041535 | 22 | 210 | 9.7 | 20.9 | 0.00 | 0.00 | 0.00 | 69 | 1017.5 |
| 20260902041336 | 22 | 147 | 9.7 | 20.9 | 0.00 | 0.00 | 0.00 | 68 | 1017.4 |
| 20260902041138 | 22 | 209 | 6.4 | 20.9 | 0.00 | 0.00 | 0.00 | 68 | 1017.5 |
| 20260902040933 | 22 | 168 | 9.7 | 20.9 | 0.00 | 0.00 | 0.00 | 68 | 1017.4 |
| 20260902040732 | 22 | 210 | 9.7 | 19.3 | 0.00 | 0.00 | 0.00 | 69 | 1017.4 |
| 20260902040531 | 22 | 189 | 8.0 | 19.3 | 0.00 | 0.00 | 0.00 | 69 | 1017.3 |
| 20260902040330 | 22 | 202 | 11.3 | 19.3 | 0.00 | 0.00 | 0.00 | 69 | 1017.3 |
| 20260902040129 | 22 | 203 | 6.4 | 19.3 | 0.00 | 0.00 | 0.00 | 69 | 1017.3 |
| 20260902035929 | 22 | 217 | 6.4 | 19.3 | 0.00 | 0.00 | 0.00 | 69 | 1017.3 |
| 20260902035728 | 22 | 214 | 6.4 | 19.3 | 0.00 | 0.00 | 0.00 | 69 | 1017.4 |
| 20260902035529 | 22 | 207 | 8.0 | 17.7 | 0.00 | 0.00 | 0.00 | 69 | 1017.3 |
| 20260902035329 | 22 | 223 | 4.8 | 17.7 | 0.00 | 0.00 | 0.00 | 69 | 1017.3 |
| 20260902035130 | 22 | 197 | 8.0 | 17.7 | 0.00 | 0.00 | 0.00 | 69 | 1017.3 |
| 20260902034929 | 22 | 244 | 6.4 | 14.5 | 0.00 | 0.00 | 0.00 | 69 | 1017.3 |
| 20260902034729 | 22 | 244 | 6.4 | 14.5 | 0.00 | 0.00 | 0.00 | 70 | 1017.4 |
| 20260902034530 | 22 | 172 | 4.8 | 11.3 | 0.00 | 0.00 | 0.00 | 70 | 1017.3 |
| 20260902034330 | 22 | 213 | 3.2 | 14.5 | 0.00 | 0.00 | 0.00 | 69 | 1017.3 |
| 20260902034131 | 22 | 213 | 4.8 | 16.1 | 0.00 | 0.00 | 0.00 | 69 | 1017.4 |
| 20260902033936 | 22 | 207 | 4.8 | 16.1 | 0.00 | 0.00 | 0.00 | 70 | 1017.4 |
| 20260902033734 | 22 | 192 | 8.0 | 16.1 | 0.00 | 0.00 | 0.00 | 70 | 1017.4 |
| 20260902033532 | 22 | 210 | 8.0 | 16.1 | 0.00 | 0.00 | 0.00 | 70 | 1017.5 |
| 20260902033329 | 22 | 134 | 9.7 | 16.1 | 0.00 | 0.00 | 0.00 | 70 | 1017.4 |
| 20260902033129 | 22 | 243 | 6.4 | 14.5 | 0.00 | 0.00 | 0.00 | 70 | 1017.5 |
| 20260902032927 | 22 | 197 | 6.4 | 14.5 | 0.00 | 0.00 | 0.00 | 70 | 1017.5 |
| 20260902032727 | 22 | 202 | 3.2 | 9.7 | 0.00 | 0.00 | 0.00 | 69 | 1017.4 |
| 20260902032526 | 22 | 176 | 4.8 | 9.7 | 0.00 | 0.00 | 0.00 | 70 | 1017.5 |
| 20260902032323 | 22 | 251 | 1.6 | 8.0 | 0.00 | 0.00 | 0.00 | 70 | 1017.5 |
| 20260902032125 | 22 | 190 | 3.2 | 8.0 | 0.00 | 0.00 | 0.00 | 70 | 1017.5 |
| 20260902031924 | 22 | 212 | 4.8 | 8.0 | 0.00 | 0.00 | 0.00 | 70 | 1017.4 |
| 20260902031724 | 22 | 196 | 3.2 | 8.0 | 0.00 | 0.00 | 0.00 | 70 | 1017.6 |
| 20260902031522 | 22 | 223 | 3.2 | 9.7 | 0.00 | 0.00 | 0.00 | 70 | 1017.5 |
| 20260902031325 | 22 | 212 | 4.8 | 9.7 | 0.00 | 0.00 | 0.00 | 70 | 1017.5 |
| 20260902031124 | 22 | 176 | 3.2 | 9.7 | 0.00 | 0.00 | 0.00 | 70 | 1017.5 |
| 20260902030922 | 22 | 169 | 3.2 | 9.7 | 0.00 | 0.00 | 0.00 | 70 | 1017.5 |
| 20260902030720 | 22 | 179 | 6.4 | 9.7 | 0.00 | 0.00 | 0.00 | 70 | 1017.5 |
| 20260902030520 | 22 | 214 | 4.8 | 8.0 | 0.00 | 0.00 | 0.00 | 70 | 1017.4 |
| 20260902030320 | 22 | 204 | 3.2 | 8.0 | 0.00 | 0.00 | 0.00 | 70 | 1017.4 |
| 20260902030125 | 22 | 212 | 3.2 | 6.4 | 0.00 | 0.00 | 0.00 | 70 | 1017.5 |
| 20260902025921 | 22 | 216 | 3.2 | 6.4 | 0.00 | 0.00 | 0.00 | 69 | 1017.5 |
| 20260902025714 | 22 | 210 | 1.6 | 6.4 | 0.00 | 0.00 | 0.00 | 69 | 1017.5 |
| 20260902025520 | 22 | 217 | 1.6 | 6.4 | 0.00 | 0.00 | 0.00 | 69 | 1017.4 |
| 20260902025310 | 22 | 217 | 1.6 | 6.4 | 0.00 | 0.00 | 0.00 | 69 | 1017.4 |
| 20260902025109 | 22 | 217 | 3.2 | 6.4 | 0.00 | 0.00 | 0.00 | 69 | 1017.3 |
| 20260902024903 | 22 | 217 | 1.6 | 6.4 | 0.00 | 0.00 | 0.00 | 69 | 1017.5 |
| 20260902024704 | 22 | 217 | 1.6 | 6.4 | 0.00 | 0.00 | 0.00 | 68 | 1017.4 |
| 20260902024521 | 22 | 217 | 1.6 | 6.4 | 0.00 | 0.00 | 0.00 | 68 | 1017.4 |
| 20260902024308 | 22 | 217 | 1.6 | 8.0 | 0.00 | 0.00 | 0.00 | 68 | 1017.4 |
| 20260902024114 | 22 | 217 | 3.2 | 8.0 | 0.00 | 0.00 | 0.00 | 68 | 1017.4 |
| 20260902023910 | 22 | 193 | 3.2 | 8.0 | 0.00 | 0.00 | 0.00 | 68 | 1017.4 |
| 20260902023710 | 22 | 202 | 1.6 | 8.0 | 0.00 | 0.00 | 0.00 | 68 | 1017.4 |
| 20260902023501 | 22 | 209 | 3.2 | 8.0 | 0.00 | 0.00 | 0.00 | 68 | 1017.4 |
| 20260902023301 | 22 | 216 | 3.2 | 8.0 | 0.00 | 0.00 | 0.00 | 68 | 1017.4 |
| 20260902023100 | 22 | 233 | 4.8 | 8.0 | 0.00 | 0.00 | 0.00 | 68 | 1017.4 |
| 20260902022901 | 22 | 217 | 4.8 | 8.0 | 0.00 | 0.00 | 0.00 | 68 | 1017.4 |
| 20260902022700 | 22 | 202 | 6.4 | 6.4 | 0.00 | 0.00 | 0.00 | 68 | 1017.3 |
| 20260902022458 | 22 | 186 | 4.8 | 6.4 | 0.00 | 0.00 | 0.00 | 68 | 1017.4 |
| 20260902022259 | 22 | 216 | 4.8 | 9.7 | 0.00 | 0.00 | 0.00 | 68 | 1017.4 |
| 20260902022057 | 22 | 220 | 1.6 | 9.7 | 0.00 | 0.00 | 0.00 | 68 | 1017.4 |
| 20260902021858 | 22 | 221 | 3.2 | 9.7 | 0.00 | 0.00 | 0.00 | 68 | 1017.4 |
| 20260902021641 | 22 | 179 | 1.6 | 9.7 | 0.00 | 0.00 | 0.00 | 67 | 1017.4 |
| 20260902021439 | 22 | 220 | 4.8 | 9.7 | 0.00 | 0.00 | 0.00 | 67 | 1017.4 |
| 20260902021240 | 22 | 203 | 6.4 | 9.7 | 0.00 | 0.00 | 0.00 | 67 | 1017.4 |
| 20260902021037 | 22 | 221 | 6.4 | 9.7 | 0.00 | 0.00 | 0.00 | 67 | 1017.5 |
| 20260902020838 | 22 | 234 | 4.8 | 9.7 | 0.00 | 0.00 | 0.00 | 67 | 1017.4 |
| 20260902020636 | 22 | 221 | 6.4 | 9.7 | 0.00 | 0.00 | 0.00 | 67 | 1017.5 |
| 20260902020436 | 23 | 231 | 4.8 | 8.0 | 0.00 | 0.00 | 0.00 | 67 | 1017.5 |
| 20260902020236 | 23 | 224 | 3.2 | 9.7 | 0.00 | 0.00 | 0.00 | 67 | 1017.4 |
| 20260902020049 | 23 | 193 | 3.2 | 9.7 | 0.00 | 0.00 | 0.00 | 67 | 1017.4 |
| 20260902015832 | 23 | 223 | 4.8 | 14.5 | 0.00 | 0.00 | 0.00 | 67 | 1017.4 |
| 20260902015635 | 23 | 220 | 4.8 | 14.5 | 0.00 | 0.00 | 0.00 | 67 | 1017.4 |
| 20260902015433 | 23 | 228 | 6.4 | 14.5 | 0.00 | 0.00 | 0.00 | 68 | 1017.4 |
| 20260902015231 | 23 | 223 | 3.2 | 14.5 | 0.00 | 0.00 | 0.00 | 68 | 1017.3 |
| 20260902015029 | 23 | 176 | 4.8 | 14.5 | 0.00 | 0.00 | 0.00 | 68 | 1017.4 |
| 20260902014829 | 23 | 200 | 9.7 | 11.3 | 0.00 | 0.00 | 0.00 | 68 | 1017.4 |
| 20260902014629 | 23 | 192 | 3.2 | 11.3 | 0.00 | 0.00 | 0.00 | 68 | 1017.4 |
| 20260902014429 | 23 | 209 | 4.8 | 11.3 | 0.00 | 0.00 | 0.00 | 68 | 1017.4 |
| 20260902014229 | 23 | 210 | 6.4 | 9.7 | 0.00 | 0.00 | 0.00 | 68 | 1017.3 |
| 20260902014028 | 23 | 219 | 3.2 | 9.7 | 0.00 | 0.00 | 0.00 | 68 | 1017.4 |
| 20260902013832 | 23 | 200 | 4.8 | 9.7 | 0.00 | 0.00 | 0.00 | 68 | 1017.3 |
| 20260902013632 | 23 | 219 | 3.2 | 9.7 | 0.00 | 0.00 | 0.00 | 68 | 1017.3 |
| 20260902013431 | 23 | 216 | 4.8 | 9.7 | 0.00 | 0.00 | 0.00 | 68 | 1017.4 |
| 20260902013228 | 23 | 224 | 3.2 | 9.7 | 0.00 | 0.00 | 0.00 | 68 | 1017.3 |
| 20260902013027 | 23 | 213 | 3.2 | 11.3 | 0.00 | 0.00 | 0.00 | 67 | 1017.3 |
| 20260902012824 | 23 | 210 | 4.8 | 11.3 | 0.00 | 0.00 | 0.00 | 67 | 1017.2 |
| 20260902012624 | 23 | 221 | 3.2 | 14.5 | 0.00 | 0.00 | 0.00 | 67 | 1017.3 |
| 20260902012422 | 23 | 182 | 3.2 | 14.5 | 0.00 | 0.00 | 0.00 | 67 | 1017.3 |
| 20260902012223 | 23 | 196 | 3.2 | 14.5 | 0.00 | 0.00 | 0.00 | 67 | 1017.4 |
| 20260902012029 | 23 | 224 | 6.4 | 14.5 | 0.00 | 0.00 | 0.00 | 67 | 1017.3 |
| 20260902011822 | 23 | 226 | 8.0 | 14.5 | 0.00 | 0.00 | 0.00 | 67 | 1017.3 |
| 20260902011621 | 23 | 226 | 6.4 | 11.3 | 0.00 | 0.00 | 0.00 | 67 | 1017.2 |
| 20260902011420 | 23 | 223 | 1.6 | 8.0 | 0.00 | 0.00 | 0.00 | 66 | 1017.3 |
| 20260902011220 | 23 | 216 | 3.2 | 8.0 | 0.00 | 0.00 | 0.00 | 66 | 1017.4 |
| 20260902011021 | 23 | 214 | 1.6 | 8.0 | 0.00 | 0.00 | 0.00 | 66 | 1017.5 |
| 20260902010819 | 23 | 213 | 4.8 | 8.0 | 0.00 | 0.00 | 0.00 | 66 | 1017.4 |
| 20260902010618 | 23 | 217 | 1.6 | 8.0 | 0.00 | 0.00 | 0.00 | 66 | 1017.4 |
| 20260902010418 | 23 | 188 | 1.6 | 8.0 | 0.00 | 0.00 | 0.00 | 65 | 1017.5 |
| 20260902010218 | 23 | 206 | 4.8 | 8.0 | 0.00 | 0.00 | 0.00 | 65 | 1017.4 |
| 20260902010042 | 23 | 234 | 3.2 | 8.0 | 0.00 | 0.00 | 0.00 | 65 | 1017.3 |
| 20260902005817 | 23 | 223 | 4.8 | 8.0 | 0.00 | 0.00 | 0.00 | 65 | 1017.3 |
| 20260902005616 | 23 | 230 | 3.2 | 8.0 | 0.00 | 0.00 | 0.00 | 65 | 1017.4 |
| 20260902005413 | 23 | 228 | 3.2 | 8.0 | 0.00 | 0.00 | 0.00 | 64 | 1017.3 |
| 20260902005213 | 23 | 214 | 3.2 | 8.0 | 0.00 | 0.00 | 0.00 | 65 | 1017.4 |
| 20260902005017 | 23 | 231 | 3.2 | 8.0 | 0.00 | 0.00 | 0.00 | 65 | 1017.4 |
| 20260902004821 | 23 | 200 | 4.8 | 8.0 | 0.00 | 0.00 | 0.00 | 64 | 1017.3 |
| 20260902004620 | 23 | 172 | 3.2 | 9.7 | 0.00 | 0.00 | 0.00 | 64 | 1017.3 |
| 20260902004419 | 23 | 265 | 3.2 | 9.7 | 0.00 | 0.00 | 0.00 | 65 | 1017.3 |
| 20260902004217 | 23 | 172 | 3.2 | 9.7 | 0.00 | 0.00 | 0.00 | 65 | 1017.3 |
| 20260902004029 | 23 | 221 | 3.2 | 9.7 | 0.00 | 0.00 | 0.00 | 65 | 1017.3 |
| 20260902003809 | 23 | 195 | 4.8 | 9.7 | 0.00 | 0.00 | 0.00 | 65 | 1017.3 |
| 20260902003611 | 23 | 199 | 1.6 | 6.4 | 0.00 | 0.00 | 0.00 | 65 | 1017.2 |
| 20260902003406 | 23 | 199 | 1.6 | 4.8 | 0.00 | 0.00 | 0.00 | 66 | 1017.2 |
| 20260902003204 | 23 | 199 | 1.6 | 4.8 | 0.00 | 0.00 | 0.00 | 66 | 1017.3 |
| 20260902003012 | 23 | 199 | 3.2 | 4.8 | 0.00 | 0.00 | 0.00 | 66 | 1017.2 |
| 20260902002803 | 23 | 199 | 0.0 | 4.8 | 0.00 | 0.00 | 0.00 | 66 | 1017.2 |
| 20260902002603 | 23 | 199 | 0.0 | 4.8 | 0.00 | 0.00 | 0.00 | 66 | 1017.3 |
| 20260902002402 | 23 | 199 | 1.6 | 4.8 | 0.00 | 0.00 | 0.00 | 66 | 1017.2 |
| 20260902002204 | 23 | 199 | 0.0 | 4.8 | 0.00 | 0.00 | 0.00 | 66 | 1017.2 |
| 20260902002000 | 23 | 199 | 0.0 | 4.8 | 0.00 | 0.00 | 0.00 | 66 | 1017.3 |
| 20260902001801 | 23 | 199 | 1.6 | 4.8 | 0.00 | 0.00 | 0.00 | 66 | 1017.2 |
| 20260902001559 | 23 | 199 | 0.0 | 4.8 | 0.00 | 0.00 | 0.00 | 66 | 1017.2 |
| 20260902001400 | 23 | 199 | 0.0 | 4.8 | 0.00 | 0.00 | 0.00 | 66 | 1017.2 |
| 20260902001158 | 23 | 199 | 1.6 | 4.8 | 0.00 | 0.00 | 0.00 | 66 | 1017.2 |
| 20260902001003 | 23 | 199 | 1.6 | 8.0 | 0.00 | 0.00 | 0.00 | 66 | 1017.3 |
| 20260902000758 | 23 | 199 | 1.6 | 8.0 | 0.00 | 0.00 | 0.00 | 66 | 1017.3 |
| 20260902000557 | 23 | 199 | 1.6 | 8.0 | 0.00 | 0.00 | 0.00 | 66 | 1017.3 |
| 20260902000359 | 23 | 203 | 3.2 | 8.0 | 0.00 | 0.00 | 0.00 | 66 | 1017.2 |
| 20260902000158 | 23 | 220 | 4.8 | 8.0 | 0.00 | 0.00 | 0.00 | 66 | 1017.3 |
| 20260902000001 | 23 | 207 | 1.6 | 8.0 | 0.00 | 0.00 | 0.00 | 66 | 1017.3 |
| 20260901235756 | 23 | 206 | 3.2 | 8.0 | 0.00 | 0.00 | 0.00 | 66 | 1017.2 |
| 20260901235604 | 23 | 206 | 3.2 | 8.0 | 0.00 | 0.00 | 0.00 | 66 | 1017.2 |
| 20260901235400 | 23 | 216 | 3.2 | 9.7 | 0.00 | 0.00 | 0.00 | 66 | 1017.3 |
| 20260901235203 | 23 | 200 | 3.2 | 9.7 | 0.00 | 0.00 | 0.00 | 66 | 1017.3 |
| 20260901235001 | 23 | 227 | 3.2 | 9.7 | 0.00 | 0.00 | 0.00 | 66 | 1017.3 |
| 20260901234753 | 23 | 199 | 3.2 | 9.7 | 0.00 | 0.00 | 0.00 | 66 | 1017.3 |
| 20260901234550 | 23 | 231 | 4.8 | 9.7 | 0.00 | 0.00 | 0.00 | 66 | 1017.3 |
| 20260901234350 | 23 | 238 | 6.4 | 9.7 | 0.00 | 0.00 | 0.00 | 66 | 1017.3 |
| 20260901234149 | 24 | 243 | 4.8 | 8.0 | 0.00 | 0.00 | 0.00 | 66 | 1017.3 |
| 20260901233952 | 24 | 231 | 3.2 | 8.0 | 0.00 | 0.00 | 0.00 | 66 | 1017.3 |
| 20260901233750 | 24 | 244 | 4.8 | 8.0 | 0.00 | 0.00 | 0.00 | 65 | 1017.3 |
| 20260901233549 | 24 | 216 | 4.8 | 8.0 | 0.00 | 0.00 | 0.00 | 65 | 1017.3 |
| 20260901233348 | 24 | 221 | 6.4 | 8.0 | 0.00 | 0.00 | 0.00 | 65 | 1017.2 |
| 20260901233147 | 24 | 210 | 4.8 | 8.0 | 0.00 | 0.00 | 0.00 | 65 | 1017.3 |
| 20260901232948 | 24 | 212 | 3.2 | 8.0 | 0.00 | 0.00 | 0.00 | 65 | 1017.1 |
| 20260901232747 | 24 | 189 | 3.2 | 8.0 | 0.00 | 0.00 | 0.00 | 65 | 1017.3 |
| 20260901232545 | 24 | 235 | 3.2 | 8.0 | 0.00 | 0.00 | 0.00 | 65 | 1017.2 |
| 20260901232346 | 24 | 210 | 4.8 | 8.0 | 0.00 | 0.00 | 0.00 | 65 | 1017.2 |
| 20260901232147 | 24 | 224 | 3.2 | 8.0 | 0.00 | 0.00 | 0.00 | 66 | 1017.2 |
| 20260901231948 | 24 | 186 | 4.8 | 9.7 | 0.00 | 0.00 | 0.00 | 66 | 1017.2 |
| 20260901231745 | 24 | 237 | 3.2 | 16.1 | 0.00 | 0.00 | 0.00 | 66 | 1017.2 |
| 20260901231541 | 24 | 193 | 3.2 | 16.1 | 0.00 | 0.00 | 0.00 | 66 | 1017.1 |
| 20260901231342 | 24 | 190 | 3.2 | 16.1 | 0.00 | 0.00 | 0.00 | 67 | 1017.2 |
| 20260901231141 | 24 | 221 | 4.8 | 16.1 | 0.00 | 0.00 | 0.00 | 67 | 1017.2 |
| 20260901230940 | 24 | 220 | 6.4 | 16.1 | 0.00 | 0.00 | 0.00 | 67 | 1017.2 |
| 20260901230740 | 24 | 199 | 4.8 | 8.0 | 0.00 | 0.00 | 0.00 | 67 | 1017.2 |
| 20260901230546 | 24 | 199 | 4.8 | 8.0 | 0.00 | 0.00 | 0.00 | 67 | 1017.2 |
| 20260901230345 | 24 | 199 | 3.2 | 8.0 | 0.00 | 0.00 | 0.00 | 67 | 1017.2 |
| 20260901230146 | 24 | 199 | 3.2 | 8.0 | 0.00 | 0.00 | 0.00 | 67 | 1017.1 |
| 20260901225948 | 24 | 199 | 1.6 | 4.8 | 0.00 | 0.00 | 0.00 | 67 | 1017.2 |
| 20260901225737 | 24 | 199 | 3.2 | 4.8 | 0.00 | 0.00 | 0.00 | 67 | 1017.1 |
| 20260901225538 | 24 | 199 | 1.6 | 4.8 | 0.00 | 0.00 | 0.00 | 67 | 1017.1 |
| 20260901225336 | 24 | 199 | 1.6 | 4.8 | 0.00 | 0.00 | 0.00 | 67 | 1017.2 |
| 20260901225138 | 24 | 199 | 1.6 | 6.4 | 0.00 | 0.00 | 0.00 | 67 | 1017.2 |
| 20260901224937 | 24 | 199 | 1.6 | 6.4 | 0.00 | 0.00 | 0.00 | 67 | 1017.1 |
| 20260901224736 | 24 | 199 | 1.6 | 8.0 | 0.00 | 0.00 | 0.00 | 67 | 1017.2 |
| 20260901224537 | 24 | 199 | 3.2 | 8.0 | 0.00 | 0.00 | 0.00 | 67 | 1017.2 |
| 20260901224337 | 24 | 199 | 4.8 | 8.0 | 0.00 | 0.00 | 0.00 | 67 | 1017.2 |
| 20260901224136 | 24 | 199 | 3.2 | 8.0 | 0.00 | 0.00 | 0.00 | 67 | 1017.2 |
| 20260901223936 | 24 | 199 | 4.8 | 8.0 | 0.00 | 0.00 | 0.00 | 67 | 1017.3 |
| 20260901223735 | 24 | 199 | 4.8 | 6.4 | 0.00 | 0.00 | 0.00 | 67 | 1017.1 |
| 20260901223536 | 24 | 199 | 3.2 | 6.4 | 0.00 | 0.00 | 0.00 | 68 | 1017.2 |
| 20260901223336 | 24 | 199 | 1.6 | 6.4 | 0.00 | 0.00 | 0.00 | 68 | 1017.2 |
| 20260901223139 | 24 | 199 | 3.2 | 6.4 | 0.00 | 0.00 | 0.00 | 68 | 1017.1 |
| 20260901222938 | 24 | 199 | 1.6 | 6.4 | 0.00 | 0.00 | 0.00 | 68 | 1017.2 |
| 20260901222736 | 24 | 199 | 3.2 | 6.4 | 0.00 | 0.00 | 0.00 | 68 | 1017.2 |
| 20260901222536 | 24 | 199 | 4.8 | 6.4 | 0.00 | 0.00 | 0.00 | 67 | 1017.2 |
| 20260901222334 | 25 | 199 | 3.2 | 6.4 | 0.00 | 0.00 | 0.00 | 68 | 1017.2 |
| 20260901222145 | 25 | 199 | 1.6 | 6.4 | 0.00 | 0.00 | 0.00 | 68 | 1017.2 |
| 20260901221940 | 25 | 199 | 1.6 | 6.4 | 0.00 | 0.00 | 0.00 | 68 | 1017.2 |
| 20260901221738 | 25 | 199 | 3.2 | 6.4 | 0.00 | 0.00 | 0.00 | 68 | 1017.2 |
| 20260901221538 | 25 | 199 | 3.2 | 8.0 | 0.00 | 0.00 | 0.00 | 68 | 1017.2 |
| 20260901221337 | 25 | 199 | 3.2 | 8.0 | 0.00 | 0.00 | 0.00 | 68 | 1017.2 |
| 20260901221137 | 25 | 199 | 3.2 | 8.0 | 0.00 | 0.00 | 0.00 | 68 | 1017.2 |
| 20260901220936 | 25 | 199 | 3.2 | 8.0 | 0.00 | 0.00 | 0.00 | 67 | 1017.1 |
| 20260901220736 | 25 | 199 | 6.4 | 8.0 | 0.00 | 0.00 | 0.00 | 67 | 1017.1 |
| 20260901220541 | 25 | 199 | 3.2 | 8.0 | 0.00 | 0.00 | 0.00 | 67 | 1017.2 |
| 20260901220335 | 25 | 199 | 3.2 | 9.7 | 0.00 | 0.00 | 0.00 | 67 | 1017.2 |
| 20260901220136 | 25 | 199 | 1.6 | 9.7 | 0.00 | 0.00 | 0.00 | 67 | 1017.2 |
| 20260901215938 | 25 | 199 | 3.2 | 9.7 | 0.00 | 0.00 | 0.00 | 67 | 1017.2 |
| 20260901215739 | 25 | 199 | 4.8 | 9.7 | 0.00 | 0.00 | 0.00 | 67 | 1017.2 |
| 20260901215536 | 25 | 183 | 4.8 | 9.7 | 0.00 | 0.00 | 0.00 | 68 | 1017.1 |
| 20260901215337 | 25 | 183 | 1.6 | 4.8 | 0.00 | 0.00 | 0.00 | 69 | 1017.1 |
| 20260901215136 | 25 | 183 | 1.6 | 4.8 | 0.00 | 0.00 | 0.00 | 69 | 1017.1 |
| 20260901214934 | 25 | 183 | 0.0 | 3.2 | 0.00 | 0.00 | 0.00 | 70 | 1017.1 |
| 20260901214736 | 25 | 183 | 0.0 | 3.2 | 0.00 | 0.00 | 0.00 | 70 | 1017.1 |
| 20260901214534 | 25 | 183 | 1.6 | 3.2 | 0.00 | 0.00 | 0.00 | 70 | 1017.2 |
| 20260901214336 | 25 | 183 | 0.0 | 0.0 | 0.00 | 0.00 | 0.00 | 70 | 1017.1 |
| 20260901214139 | 25 | 183 | 0.0 | 0.0 | 0.00 | 0.00 | 0.00 | 69 | 1017.1 |
| 20260901213941 | 25 | 183 | 0.0 | 0.0 | 0.00 | 0.00 | 0.00 | 70 | 1016.9 |
| 20260901213742 | 25 | 183 | 0.0 | 0.0 | 0.00 | 0.00 | 0.00 | 70 | 1016.9 |
| 20260901213543 | 25 | 183 | 0.0 | 1.6 | 0.00 | 0.00 | 0.00 | 70 | 1017.1 |
| 20260901213336 | 25 | 183 | 0.0 | 1.6 | 0.00 | 0.00 | 0.00 | 70 | 1016.9 |
| 20260901213137 | 25 | 183 | 0.0 | 1.6 | 0.00 | 0.00 | 0.00 | 70 | 1017.1 |
| 20260901212935 | 25 | 183 | 0.0 | 1.6 | 0.00 | 0.00 | 0.00 | 70 | 1016.8 |
| 20260901212737 | 25 | 183 | 0.0 | 3.2 | 0.00 | 0.00 | 0.00 | 70 | 1016.9 |
| 20260901212540 | 25 | 183 | 0.0 | 3.2 | 0.00 | 0.00 | 0.00 | 70 | 1016.9 |
| 20260901212341 | 26 | 183 | 0.0 | 8.0 | 0.00 | 0.00 | 0.00 | 70 | 1016.8 |
| 20260901212137 | 26 | 183 | 0.0 | 8.0 | 0.00 | 0.00 | 0.00 | 70 | 1016.9 |
| 20260901211935 | 26 | 183 | 0.0 | 8.0 | 0.00 | 0.00 | 0.00 | 70 | 1016.9 |
| 20260901211737 | 26 | 183 | 1.6 | 9.7 | 0.00 | 0.00 | 0.00 | 70 | 1016.8 |
| 20260901211535 | 26 | 183 | 3.2 | 9.7 | 0.00 | 0.00 | 0.00 | 69 | 1016.9 |
| 20260901211340 | 26 | 197 | 3.2 | 9.7 | 0.00 | 0.00 | 0.00 | 70 | 1016.8 |
| 20260901211136 | 26 | 125 | 1.6 | 9.7 | 0.00 | 0.00 | 0.00 | 70 | 1016.8 |
| 20260901210936 | 26 | 223 | 3.2 | 9.7 | 0.00 | 0.00 | 0.00 | 70 | 1016.7 |
| 20260901210737 | 26 | 217 | 3.2 | 8.0 | 0.00 | 0.00 | 0.00 | 70 | 1016.7 |
| 20260901210534 | 26 | 237 | 0.0 | 4.8 | 0.00 | 0.00 | 0.00 | 70 | 1016.7 |
| 20260901210337 | 26 | 76 | 0.0 | 4.8 | 0.00 | 0.00 | 0.00 | 70 | 1016.7 |
| 20260901210137 | 26 | 75 | 1.6 | 4.8 | 0.00 | 0.00 | 0.00 | 70 | 1016.7 |
| 20260901205942 | 26 | 73 | 1.6 | 3.2 | 0.00 | 0.00 | 0.00 | 70 | 1016.6 |
| 20260901205741 | 26 | 72 | 1.6 | 3.2 | 0.00 | 0.00 | 0.00 | 70 | 1016.7 |
| 20260901205537 | 26 | 75 | 1.6 | 3.2 | 0.00 | 0.00 | 0.00 | 70 | 1016.7 |
| 20260901205343 | 26 | 109 | 1.6 | 3.2 | 0.00 | 0.00 | 0.00 | 70 | 1016.7 |
| 20260901205138 | 26 | 94 | 0.0 | 4.8 | 0.00 | 0.00 | 0.00 | 70 | 1016.7 |
| 20260901204936 | 26 | 94 | 0.0 | 4.8 | 0.00 | 0.00 | 0.00 | 70 | 1016.6 |
| 20260901204736 | 26 | 96 | 0.0 | 4.8 | 0.00 | 0.00 | 0.00 | 70 | 1016.7 |
| 20260901204535 | 26 | 58 | 0.0 | 6.4 | 0.00 | 0.00 | 0.00 | 70 | 1016.6 |
| 20260901204335 | 26 | 58 | 1.6 | 6.4 | 0.00 | 0.00 | 0.00 | 69 | 1016.6 |
| 20260901204137 | 26 | 120 | 0.0 | 6.4 | 0.00 | 0.00 | 0.00 | 69 | 1016.6 |
| 20260901203933 | 26 | 120 | 0.0 | 6.4 | 0.00 | 0.00 | 0.00 | 69 | 1016.5 |
| 20260901203735 | 26 | 120 | 3.2 | 6.4 | 0.00 | 0.00 | 0.00 | 69 | 1016.6 |
| 20260901203536 | 26 | 106 | 3.2 | 6.4 | 0.00 | 0.00 | 0.00 | 69 | 1016.6 |
| 20260901203334 | 26 | 148 | 1.6 | 6.4 | 0.00 | 0.00 | 0.00 | 69 | 1016.6 |
| 20260901203136 | 26 | 134 | 0.0 | 6.4 | 0.00 | 0.00 | 0.00 | 69 | 1016.6 |
| 20260901202934 | 26 | 134 | 0.0 | 6.4 | 0.00 | 0.00 | 0.00 | 69 | 1016.6 |
| 20260901202736 | 26 | 134 | 0.0 | 6.4 | 0.00 | 0.00 | 0.00 | 69 | 1016.6 |
| 20260901202535 | 26 | 134 | 0.0 | 6.4 | 0.00 | 0.00 | 0.00 | 69 | 1016.6 |
| 20260901202336 | 27 | 134 | 3.2 | 9.7 | 0.00 | 0.00 | 0.00 | 69 | 1016.6 |
| 20260901202136 | 27 | 92 | 0.0 | 9.7 | 0.00 | 0.00 | 0.00 | 69 | 1016.5 |
| 20260901201935 | 27 | 131 | 1.6 | 9.7 | 0.00 | 0.00 | 0.00 | 69 | 1016.5 |
| 20260901201743 | 27 | 118 | 3.2 | 9.7 | 0.00 | 0.00 | 0.00 | 69 | 1016.5 |
| 20260901201541 | 27 | 114 | 4.8 | 9.7 | 0.00 | 0.00 | 0.00 | 69 | 1016.6 |
| 20260901201338 | 27 | 133 | 1.6 | 11.3 | 0.00 | 0.00 | 0.00 | 69 | 1016.5 |
| 20260901201140 | 27 | 133 | 1.6 | 11.3 | 0.00 | 0.00 | 0.00 | 69 | 1016.6 |
| 20260901200934 | 27 | 134 | 1.6 | 11.3 | 0.00 | 0.00 | 0.00 | 69 | 1016.5 |
| 20260901200735 | 27 | 125 | 1.6 | 11.3 | 0.00 | 0.00 | 0.00 | 69 | 1016.5 |
| 20260901200542 | 27 | 110 | 4.8 | 11.3 | 0.00 | 0.00 | 0.00 | 68 | 1016.5 |
| 20260901200334 | 27 | 63 | 8.0 | 11.3 | 0.00 | 0.00 | 0.00 | 68 | 1016.4 |
| 20260901200135 | 27 | 47 | 6.4 | 11.3 | 0.00 | 0.00 | 0.00 | 68 | 1016.4 |
| 20260901195935 | 27 | 65 | 3.2 | 8.0 | 0.00 | 0.00 | 0.00 | 68 | 1016.4 |
| 20260901195738 | 27 | 78 | 3.2 | 8.0 | 0.00 | 0.00 | 0.00 | 68 | 1016.4 |
| 20260901195548 | 27 | 114 | 3.2 | 8.0 | 0.00 | 0.00 | 0.00 | 68 | 1016.5 |
| 20260901195334 | 27 | 114 | 3.2 | 8.0 | 0.00 | 0.00 | 0.00 | 68 | 1016.4 |
| 20260901195136 | 27 | 87 | 3.2 | 9.7 | 0.00 | 0.00 | 0.00 | 68 | 1016.4 |
| 20260901194935 | 27 | 111 | 4.8 | 11.3 | 0.00 | 0.00 | 0.00 | 68 | 1016.3 |
| 20260901194738 | 27 | 72 | 1.6 | 11.3 | 0.00 | 0.00 | 0.00 | 67 | 1016.4 |
| 20260901194539 | 27 | 121 | 3.2 | 11.3 | 0.00 | 0.00 | 0.00 | 67 | 1016.4 |
| 20260901194336 | 27 | 71 | 1.6 | 11.3 | 0.00 | 0.00 | 0.00 | 67 | 1016.4 |
| 20260901194135 | 27 | 35 | 4.8 | 11.3 | 0.00 | 0.00 | 0.00 | 67 | 1016.4 |
| 20260901193936 | 27 | 135 | 3.2 | 11.3 | 0.00 | 0.00 | 0.00 | 67 | 1016.4 |
| 20260901193748 | 27 | 114 | 3.2 | 11.3 | 0.00 | 0.00 | 0.00 | 66 | 1016.4 |
| 20260901193551 | 27 | 134 | 3.2 | 11.3 | 0.00 | 0.00 | 0.00 | 66 | 1016.4 |
| 20260901193342 | 27 | 121 | 4.8 | 11.3 | 0.00 | 0.00 | 0.00 | 66 | 1016.4 |
| 20260901193138 | 27 | 107 | 6.4 | 11.3 | 0.00 | 0.00 | 0.00 | 66 | 1016.4 |
| 20260901192937 | 27 | 117 | 6.4 | 9.7 | 0.00 | 0.00 | 0.00 | 66 | 1016.4 |
| 20260901192736 | 27 | 110 | 1.6 | 9.7 | 0.00 | 0.00 | 0.00 | 66 | 1016.4 |
| 20260901192539 | 27 | 125 | 1.6 | 9.7 | 0.00 | 0.00 | 0.00 | 65 | 1016.4 |
| 20260901192334 | 27 | 59 | 0.0 | 8.0 | 0.00 | 0.00 | 0.00 | 65 | 1016.5 |
| 20260901192137 | 27 | 71 | 1.6 | 8.0 | 0.00 | 0.00 | 0.00 | 65 | 1016.4 |
| 20260901191936 | 27 | 121 | 0.0 | 8.0 | 0.00 | 0.00 | 0.00 | 65 | 1016.4 |
| 20260901191741 | 28 | 123 | 1.6 | 9.7 | 0.00 | 0.00 | 0.00 | 65 | 1016.3 |
| 20260901191540 | 28 | 83 | 3.2 | 11.3 | 0.00 | 0.00 | 0.00 | 65 | 1016.4 |
| 20260901191337 | 28 | 103 | 0.0 | 11.3 | 0.00 | 0.00 | 0.00 | 64 | 1016.3 |
| 20260901191136 | 28 | 103 | 1.6 | 11.3 | 0.00 | 0.00 | 0.00 | 64 | 1016.3 |
| 20260901190935 | 28 | 100 | 6.4 | 11.3 | 0.00 | 0.00 | 0.00 | 64 | 1016.1 |
| 20260901190741 | 28 | 164 | 4.8 | 11.3 | 0.00 | 0.00 | 0.00 | 64 | 1016.1 |
| 20260901190534 | 28 | 118 | 4.8 | 11.3 | 0.00 | 0.00 | 0.00 | 64 | 1016.1 |
| 20260901190334 | 28 | 90 | 3.2 | 11.3 | 0.00 | 0.00 | 0.00 | 64 | 1016.1 |
| 20260901190136 | 28 | 151 | 3.2 | 11.3 | 0.00 | 0.00 | 0.00 | 64 | 1016.1 |
| 20260901185934 | 28 | 120 | 0.0 | 11.3 | 0.00 | 0.00 | 0.00 | 63 | 1016.0 |
| 20260901185745 | 28 | 117 | 4.8 | 11.3 | 0.00 | 0.00 | 0.00 | 63 | 1016.0 |
| 20260901185543 | 28 | 87 | 3.2 | 11.3 | 0.00 | 0.00 | 0.00 | 63 | 1016.1 |
| 20260901185340 | 28 | 86 | 3.2 | 11.3 | 0.00 | 0.00 | 0.00 | 63 | 1016.0 |
| 20260901185141 | 28 | 76 | 3.2 | 9.7 | 0.00 | 0.00 | 0.00 | 63 | 1016.0 |
| 20260901184938 | 28 | 127 | 4.8 | 9.7 | 0.00 | 0.00 | 0.00 | 63 | 1015.9 |
| 20260901184738 | 28 | 106 | 0.0 | 4.8 | 0.00 | 0.00 | 0.00 | 62 | 1016.0 |
| 20260901184540 | 28 | 124 | 1.6 | 8.0 | 0.00 | 0.00 | 0.00 | 62 | 1016.0 |
| 20260901184334 | 28 | 45 | 1.6 | 19.3 | 0.00 | 0.00 | 0.00 | 62 | 1015.9 |
| 20260901184137 | 28 | 128 | 3.2 | 19.3 | 0.00 | 0.00 | 0.00 | 62 | 1015.9 |
| 20260901183933 | 28 | 45 | 3.2 | 19.3 | 0.00 | 0.00 | 0.00 | 61 | 1015.8 |
| 20260901183736 | 28 | 94 | 3.2 | 19.3 | 0.00 | 0.00 | 0.00 | 61 | 1015.8 |
| 20260901183538 | 28 | 127 | 6.4 | 19.3 | 0.00 | 0.00 | 0.00 | 61 | 1015.7 |
| 20260901183335 | 28 | 97 | 4.8 | 19.3 | 0.00 | 0.00 | 0.00 | 61 | 1015.7 |
| 20260901183135 | 28 | 106 | 6.4 | 19.3 | 0.00 | 0.00 | 0.00 | 61 | 1015.6 |
| 20260901182934 | 28 | 99 | 3.2 | 16.1 | 0.00 | 0.00 | 0.00 | 60 | 1015.7 |
| 20260901182738 | 28 | 120 | 3.2 | 16.1 | 0.00 | 0.00 | 0.00 | 60 | 1015.8 |
| 20260901182536 | 28 | 102 | 3.2 | 16.1 | 0.00 | 0.00 | 0.00 | 60 | 1015.6 |
| 20260901182334 | 28 | 51 | 6.4 | 16.1 | 0.00 | 0.00 | 0.00 | 59 | 1015.6 |
| 20260901182135 | 28 | 85 | 6.4 | 16.1 | 0.00 | 0.00 | 0.00 | 59 | 1015.5 |
| 20260901181934 | 28 | 114 | 3.2 | 20.9 | 0.00 | 0.00 | 0.00 | 58 | 1015.6 |
| 20260901181744 | 28 | 114 | 1.6 | 20.9 | 0.00 | 0.00 | 0.00 | 58 | 1015.6 |
| 20260901181540 | 28 | 56 | 3.2 | 20.9 | 0.00 | 0.00 | 0.00 | 58 | 1015.5 |
| 20260901181340 | 28 | 114 | 3.2 | 20.9 | 0.00 | 0.00 | 0.00 | 58 | 1015.5 |
| 20260901181136 | 28 | 37 | 6.4 | 20.9 | 0.00 | 0.00 | 0.00 | 58 | 1015.3 |
| 20260901180939 | 29 | 41 | 3.2 | 20.9 | 0.00 | 0.00 | 0.00 | 57 | 1015.4 |
| 20260901180735 | 29 | 69 | 4.8 | 20.9 | 0.00 | 0.00 | 0.00 | 57 | 1015.4 |
| 20260901180534 | 29 | 89 | 4.8 | 20.9 | 0.00 | 0.00 | 0.00 | 57 | 1015.4 |
| 20260901180334 | 29 | 165 | 6.4 | 20.9 | 0.00 | 0.00 | 0.00 | 57 | 1015.4 |
| 20260901180134 | 29 | 130 | 8.0 | 17.7 | 0.00 | 0.00 | 0.00 | 57 | 1015.4 |
| 20260901175936 | 29 | 111 | 8.0 | 17.7 | 0.00 | 0.00 | 0.00 | 57 | 1015.4 |
| 20260901175734 | 29 | 59 | 8.0 | 17.7 | 0.00 | 0.00 | 0.00 | 57 | 1015.4 |
| 20260901175534 | 29 | 69 | 8.0 | 17.7 | 0.00 | 0.00 | 0.00 | 57 | 1015.4 |
| 20260901175336 | 29 | 49 | 3.2 | 19.3 | 0.00 | 0.00 | 0.00 | 57 | 1015.5 |
| 20260901175136 | 29 | 116 | 4.8 | 19.3 | 0.00 | 0.00 | 0.00 | 57 | 1015.5 |
| 20260901174937 | 29 | 118 | 6.4 | 19.3 | 0.00 | 0.00 | 0.00 | 57 | 1015.5 |
| 20260901174734 | 29 | 39 | 6.4 | 19.3 | 0.00 | 0.00 | 0.00 | 57 | 1015.5 |
| 20260901174533 | 29 | 86 | 9.7 | 19.3 | 0.00 | 0.00 | 0.00 | 57 | 1015.5 |
| 20260901174333 | 29 | 61 | 8.0 | 19.3 | 0.00 | 0.00 | 0.00 | 57 | 1015.4 |
| 20260901174132 | 29 | 54 | 8.0 | 17.7 | 0.00 | 0.00 | 0.00 | 57 | 1015.4 |
| 20260901173934 | 29 | 107 | 6.4 | 17.7 | 0.00 | 0.00 | 0.00 | 57 | 1015.4 |
| 20260901173732 | 29 | 90 | 8.0 | 17.7 | 0.00 | 0.00 | 0.00 | 57 | 1015.3 |
| 20260901173534 | 29 | 104 | 6.4 | 20.9 | 0.00 | 0.00 | 0.00 | 57 | 1015.1 |
| 20260901173337 | 29 | 120 | 6.4 | 20.9 | 0.00 | 0.00 | 0.00 | 57 | 1015.3 |
| 20260901173134 | 29 | 97 | 9.7 | 20.9 | 0.00 | 0.00 | 0.00 | 57 | 1015.3 |
| 20260901172919 | 29 | 63 | 8.0 | 20.9 | 0.00 | 0.00 | 0.00 | 57 | 1015.3 |
| 20260901172727 | 29 | 75 | 9.7 | 20.9 | 0.00 | 0.00 | 0.00 | 57 | 1015.3 |
| 20260901172528 | 29 | 75 | 9.7 | 20.9 | 0.00 | 0.00 | 0.00 | 57 | 1015.2 |
| 20260901172321 | 29 | 78 | 9.7 | 20.9 | 0.00 | 0.00 | 0.00 | 57 | 1015.3 |
| 20260901172119 | 30 | 62 | 6.4 | 17.7 | 0.00 | 0.00 | 0.00 | 57 | 1015.3 |
| 20260901171918 | 30 | 73 | 6.4 | 22.5 | 0.00 | 0.00 | 0.00 | 57 | 1015.3 |
| 20260901171714 | 30 | 255 | 6.4 | 22.5 | 0.00 | 0.00 | 0.00 | 57 | 1015.1 |
| 20260901171525 | 30 | 87 | 6.4 | 22.5 | 0.00 | 0.00 | 0.00 | 57 | 1015.2 |
| 20260901171313 | 30 | 28 | 6.4 | 22.5 | 0.00 | 0.00 | 0.00 | 57 | 1015.1 |
| 20260901171114 | 30 | 30 | 11.3 | 22.5 | 0.00 | 0.00 | 0.00 | 57 | 1015.1 |
| 20260901170915 | 30 | 83 | 6.4 | 19.3 | 0.00 | 0.00 | 0.00 | 57 | 1015.2 |
| 20260901170713 | 30 | 127 | 8.0 | 19.3 | 0.00 | 0.00 | 0.00 | 57 | 1015.3 |
| 20260901170519 | 30 | 39 | 6.4 | 19.3 | 0.00 | 0.00 | 0.00 | 57 | 1015.2 |
| 20260901170314 | 30 | 109 | 6.4 | 19.3 | 0.00 | 0.00 | 0.00 | 57 | 1015.1 |
| 20260901170105 | 30 | 62 | 11.3 | 19.3 | 0.00 | 0.00 | 0.00 | 57 | 1015.2 |
| 20260901165905 | 30 | 68 | 8.0 | 19.3 | 0.00 | 0.00 | 0.00 | 57 | 1015.2 |
| 20260901165705 | 30 | 80 | 9.7 | 19.3 | 0.00 | 0.00 | 0.00 | 58 | 1015.2 |
| 20260901165501 | 30 | 134 | 8.0 | 22.5 | 0.00 | 0.00 | 0.00 | 58 | 1015.3 |
| 20260901165256 | 30 | 120 | 4.8 | 22.5 | 0.00 | 0.00 | 0.00 | 58 | 1015.3 |
| 20260901165055 | 30 | 100 | 4.8 | 22.5 | 0.00 | 0.00 | 0.00 | 58 | 1015.3 |
| 20260901164854 | 30 | 144 | 6.4 | 22.5 | 0.00 | 0.00 | 0.00 | 58 | 1015.3 |
| 20260901164655 | 30 | 124 | 11.3 | 22.5 | 0.00 | 0.00 | 0.00 | 58 | 1015.3 |
| 20260901164446 | 30 | 114 | 6.4 | 22.5 | 0.00 | 0.00 | 0.00 | 58 | 1015.2 |
| 20260901164247 | 30 | 107 | 3.2 | 22.5 | 0.00 | 0.00 | 0.00 | 58 | 1015.3 |
| 20260901164045 | 30 | 48 | 9.7 | 22.5 | 0.00 | 0.00 | 0.00 | 57 | 1015.3 |
| 20260901163845 | 30 | 79 | 14.5 | 22.5 | 0.00 | 0.00 | 0.00 | 57 | 1015.3 |
| 20260901163645 | 30 | 45 | 12.9 | 22.5 | 0.00 | 0.00 | 0.00 | 57 | 1015.3 |
| 20260901163446 | 30 | 68 | 9.7 | 24.1 | 0.00 | 0.00 | 0.00 | 57 | 1015.2 |
| 20260901163245 | 30 | 10 | 8.0 | 24.1 | 0.00 | 0.00 | 0.00 | 57 | 1015.2 |
| 20260901163043 | 30 | 97 | 6.4 | 24.1 | 0.00 | 0.00 | 0.00 | 56 | 1015.3 |
| 20260901162843 | 30 | 141 | 11.3 | 24.1 | 0.00 | 0.00 | 0.00 | 56 | 1015.3 |
| 20260901162642 | 30 | 44 | 11.3 | 24.1 | 0.00 | 0.00 | 0.00 | 56 | 1015.3 |
| 20260901162443 | 30 | 99 | 6.4 | 22.5 | 0.00 | 0.00 | 0.00 | 57 | 1015.2 |
| 20260901162242 | 30 | 79 | 4.8 | 20.9 | 0.00 | 0.00 | 0.00 | 56 | 1015.2 |
| 20260901162043 | 30 | 51 | 12.9 | 20.9 | 0.00 | 0.00 | 0.00 | 56 | 1015.3 |
| 20260901161847 | 31 | 75 | 11.3 | 20.9 | 0.00 | 0.00 | 0.00 | 56 | 1015.3 |
| 20260901161646 | 31 | 82 | 8.0 | 16.1 | 0.00 | 0.00 | 0.00 | 57 | 1015.3 |
| 20260901161445 | 31 | 89 | 4.8 | 14.5 | 0.00 | 0.00 | 0.00 | 57 | 1015.3 |
| 20260901161240 | 31 | 100 | 6.4 | 16.1 | 0.00 | 0.00 | 0.00 | 57 | 1015.3 |
| 20260901161048 | 31 | 99 | 4.8 | 20.9 | 0.00 | 0.00 | 0.00 | 57 | 1015.3 |
| 20260901160840 | 30 | 66 | 4.8 | 20.9 | 0.00 | 0.00 | 0.00 | 57 | 1015.3 |
| 20260901160637 | 30 | 89 | 4.8 | 30.6 | 0.00 | 0.00 | 0.00 | 57 | 1015.4 |
| 20260901160437 | 30 | 97 | 8.0 | 30.6 | 0.00 | 0.00 | 0.00 | 57 | 1015.3 |
| 20260901160234 | 30 | 56 | 8.0 | 30.6 | 0.00 | 0.00 | 0.00 | 57 | 1015.3 |
| 20260901160051 | 30 | 83 | 11.3 | 30.6 | 0.00 | 0.00 | 0.00 | 57 | 1015.3 |
| 20260901155839 | 30 | 58 | 17.7 | 30.6 | 0.00 | 0.00 | 0.00 | 57 | 1015.3 |
| 20260901155636 | 30 | 39 | 16.1 | 29.0 | 0.00 | 0.00 | 0.00 | 57 | 1015.3 |
| 20260901155438 | 30 | 68 | 17.7 | 29.0 | 0.00 | 0.00 | 0.00 | 57 | 1015.3 |
| 20260901155235 | 30 | 78 | 14.5 | 24.1 | 0.00 | 0.00 | 0.00 | 57 | 1015.4 |
| 20260901155034 | 30 | 42 | 9.7 | 27.4 | 0.00 | 0.00 | 0.00 | 57 | 1015.2 |
| 20260901154833 | 30 | 42 | 8.0 | 27.4 | 0.00 | 0.00 | 0.00 | 57 | 1015.3 |
| 20260901154632 | 30 | 138 | 12.9 | 27.4 | 0.00 | 0.00 | 0.00 | 58 | 1015.4 |
| 20260901154429 | 30 | 68 | 6.4 | 27.4 | 0.00 | 0.00 | 0.00 | 58 | 1015.3 |
| 20260901154229 | 30 | 0 | 11.3 | 27.4 | 0.00 | 0.00 | 0.00 | 58 | 1015.3 |
| 20260901154029 | 30 | 65 | 6.4 | 22.5 | 0.00 | 0.00 | 0.00 | 58 | 1015.4 |
| 20260901153829 | 30 | 86 | 6.4 | 22.5 | 0.00 | 0.00 | 0.00 | 58 | 1015.4 |
| 20260901153629 | 30 | 131 | 6.4 | 22.5 | 0.00 | 0.00 | 0.00 | 58 | 1015.4 |
| 20260901153429 | 30 | 39 | 11.3 | 22.5 | 0.00 | 0.00 | 0.00 | 58 | 1015.3 |
| 20260901153229 | 31 | 63 | 12.9 | 22.5 | 0.00 | 0.00 | 0.00 | 58 | 1015.4 |
| 20260901153035 | 31 | 104 | 9.7 | 22.5 | 0.00 | 0.00 | 0.00 | 57 | 1015.4 |
| 20260901152832 | 31 | 10 | 9.7 | 20.9 | 0.00 | 0.00 | 0.00 | 57 | 1015.4 |
| 20260901152631 | 31 | 117 | 6.4 | 20.9 | 0.00 | 0.00 | 0.00 | 57 | 1015.4 |
| 20260901152431 | 31 | 96 | 11.3 | 20.9 | 0.00 | 0.00 | 0.00 | 57 | 1015.4 |
| 20260901152233 | 31 | 87 | 14.5 | 22.5 | 0.00 | 0.00 | 0.00 | 57 | 1015.3 |
| 20260901152032 | 31 | 106 | 6.4 | 22.5 | 0.00 | 0.00 | 0.00 | 57 | 1015.4 |
| 20260901151831 | 31 | 71 | 4.8 | 22.5 | 0.00 | 0.00 | 0.00 | 57 | 1015.4 |
| 20260901151629 | 31 | 123 | 6.4 | 22.5 | 0.00 | 0.00 | 0.00 | 57 | 1015.3 |
| 20260901151429 | 31 | 76 | 12.9 | 25.7 | 0.00 | 0.00 | 0.00 | 57 | 1015.3 |
| 20260901151229 | 31 | 149 | 8.0 | 25.7 | 0.00 | 0.00 | 0.00 | 57 | 1015.3 |
| 20260901151032 | 31 | 103 | 6.4 | 25.7 | 0.00 | 0.00 | 0.00 | 57 | 1015.3 |
| 20260901150829 | 31 | 71 | 6.4 | 25.7 | 0.00 | 0.00 | 0.00 | 57 | 1015.3 |
| 20260901150629 | 31 | 110 | 11.3 | 25.7 | 0.00 | 0.00 | 0.00 | 57 | 1015.3 |
| 20260901150427 | 31 | 69 | 8.0 | 24.1 | 0.00 | 0.00 | 0.00 | 57 | 1015.2 |
| 20260901150228 | 31 | 103 | 11.3 | 24.1 | 0.00 | 0.00 | 0.00 | 56 | 1015.4 |
| 20260901150049 | 32 | 45 | 16.1 | 24.1 | 0.00 | 0.00 | 0.00 | 56 | 1015.2 |
| 20260901145826 | 32 | 72 | 6.4 | 22.5 | 0.00 | 0.00 | 0.00 | 55 | 1015.2 |
| 20260901145625 | 32 | 96 | 9.7 | 22.5 | 0.00 | 0.00 | 0.00 | 55 | 1015.3 |
| 20260901145428 | 32 | 93 | 12.9 | 20.9 | 0.00 | 0.00 | 0.00 | 55 | 1015.2 |
| 20260901145224 | 32 | 68 | 9.7 | 19.3 | 0.00 | 0.00 | 0.00 | 54 | 1015.3 |
| 20260901145026 | 32 | 93 | 6.4 | 17.7 | 0.00 | 0.00 | 0.00 | 53 | 1015.2 |
| 20260901144825 | 32 | 51 | 3.2 | 9.7 | 0.00 | 0.00 | 0.00 | 51 | 1015.3 |
| 20260901144626 | 32 | 66 | 3.2 | 14.5 | 0.00 | 0.00 | 0.00 | 50 | 1015.3 |
| 20260901144420 | 32 | 151 | 3.2 | 14.5 | 0.00 | 0.00 | 0.00 | 50 | 1015.3 |
| 20260901144226 | 32 | 30 | 6.4 | 14.5 | 0.00 | 0.00 | 0.00 | 50 | 1015.3 |
| 20260901144028 | 32 | 63 | 6.4 | 14.5 | 0.00 | 0.00 | 0.00 | 50 | 1015.3 |
| 20260901143821 | 32 | 89 | 6.4 | 14.5 | 0.00 | 0.00 | 0.00 | 49 | 1015.3 |
| 20260901143619 | 32 | 47 | 3.2 | 14.5 | 0.00 | 0.00 | 0.00 | 49 | 1015.3 |
| 20260901143418 | 32 | 56 | 6.4 | 17.7 | 0.00 | 0.00 | 0.00 | 49 | 1015.2 |
| 20260901143217 | 32 | 62 | 1.6 | 19.3 | 0.00 | 0.00 | 0.00 | 49 | 1015.3 |
| 20260901143023 | 32 | 16 | 4.8 | 19.3 | 0.00 | 0.00 | 0.00 | 49 | 1015.2 |
| 20260901142818 | 32 | 62 | 6.4 | 19.3 | 0.00 | 0.00 | 0.00 | 49 | 1015.2 |
| 20260901142616 | 32 | 341 | 11.3 | 19.3 | 0.00 | 0.00 | 0.00 | 48 | 1015.3 |
| 20260901142416 | 32 | 0 | 9.7 | 19.3 | 0.00 | 0.00 | 0.00 | 48 | 1015.3 |
| 20260901142215 | 32 | 353 | 6.4 | 14.5 | 0.00 | 0.00 | 0.00 | 48 | 1015.3 |
| 20260901142017 | 32 | 16 | 8.0 | 14.5 | 0.00 | 0.00 | 0.00 | 48 | 1015.5 |
| 20260901141814 | 32 | 0 | 8.0 | 16.1 | 0.00 | 0.00 | 0.00 | 48 | 1015.4 |
| 20260901141614 | 32 | 338 | 9.7 | 16.1 | 0.00 | 0.00 | 0.00 | 48 | 1015.4 |
| 20260901141413 | 32 | 14 | 4.8 | 16.1 | 0.00 | 0.00 | 0.00 | 48 | 1015.3 |
| 20260901141216 | 32 | 89 | 6.4 | 16.1 | 0.00 | 0.00 | 0.00 | 48 | 1015.5 |
| 20260901141020 | 32 | 75 | 6.4 | 16.1 | 0.00 | 0.00 | 0.00 | 48 | 1015.5 |
| 20260901140813 | 32 | 0 | 3.2 | 11.3 | 0.00 | 0.00 | 0.00 | 49 | 1015.4 |
| 20260901140610 | 32 | 17 | 4.8 | 11.3 | 0.00 | 0.00 | 0.00 | 49 | 1015.4 |
| 20260901140409 | 32 | 0 | 6.4 | 11.3 | 0.00 | 0.00 | 0.00 | 48 | 1015.5 |
| 20260901140212 | 32 | 71 | 3.2 | 11.3 | 0.00 | 0.00 | 0.00 | 48 | 1015.4 |
| 20260901140041 | 32 | 103 | 0.0 | 11.3 | 0.00 | 0.00 | 0.00 | 48 | 1015.5 |
| 20260901135807 | 32 | 45 | 6.4 | 11.3 | 0.00 | 0.00 | 0.00 | 48 | 1015.5 |
| 20260901135607 | 32 | 58 | 3.2 | 9.7 | 0.00 | 0.00 | 0.00 | 48 | 1015.5 |
| 20260901135415 | 32 | 94 | 6.4 | 9.7 | 0.00 | 0.00 | 0.00 | 47 | 1015.5 |
| 20260901135213 | 32 | 79 | 3.2 | 9.7 | 0.00 | 0.00 | 0.00 | 47 | 1015.5 |
| 20260901135028 | 32 | 93 | 1.6 | 9.7 | 0.00 | 0.00 | 0.00 | 47 | 1015.5 |
| 20260901134809 | 32 | 106 | 4.8 | 9.7 | 0.00 | 0.00 | 0.00 | 47 | 1015.5 |
| 20260901134607 | 33 | 37 | 4.8 | 9.7 | 0.00 | 0.00 | 0.00 | 47 | 1015.6 |
| 20260901134406 | 33 | 79 | 3.2 | 9.7 | 0.00 | 0.00 | 0.00 | 47 | 1015.6 |
| 20260901134206 | 33 | 31 | 6.4 | 9.7 | 0.00 | 0.00 | 0.00 | 47 | 1015.5 |
| 20260901134012 | 33 | 73 | 3.2 | 8.0 | 0.00 | 0.00 | 0.00 | 47 | 1015.5 |
| 20260901133805 | 33 | 357 | 4.8 | 8.0 | 0.00 | 0.00 | 0.00 | 47 | 1015.6 |
| 20260901133602 | 33 | 10 | 1.6 | 8.0 | 0.00 | 0.00 | 0.00 | 47 | 1015.6 |
| 20260901133403 | 33 | 71 | 3.2 | 8.0 | 0.00 | 0.00 | 0.00 | 48 | 1015.5 |
| 20260901133208 | 33 | 0 | 4.8 | 8.0 | 0.00 | 0.00 | 0.00 | 48 | 1015.5 |
| 20260901133019 | 32 | 61 | 1.6 | 11.3 | 0.00 | 0.00 | 0.00 | 48 | 1015.5 |
| 20260901132802 | 32 | 147 | 1.6 | 11.3 | 0.00 | 0.00 | 0.00 | 48 | 1015.6 |
| 20260901132602 | 32 | 85 | 1.6 | 11.3 | 0.00 | 0.00 | 0.00 | 48 | 1015.6 |
| 20260901132402 | 32 | 106 | 1.6 | 11.3 | 0.00 | 0.00 | 0.00 | 48 | 1015.6 |
| 20260901132204 | 32 | 164 | 4.8 | 11.3 | 0.00 | 0.00 | 0.00 | 48 | 1015.6 |
| 20260901132021 | 32 | 133 | 6.4 | 11.3 | 0.00 | 0.00 | 0.00 | 48 | 1015.6 |
| 20260901131801 | 32 | 121 | 3.2 | 11.3 | 0.00 | 0.00 | 0.00 | 49 | 1015.7 |
| 20260901131606 | 32 | 154 | 3.2 | 11.3 | 0.00 | 0.00 | 0.00 | 48 | 1015.7 |
| 20260901131402 | 32 | 85 | 4.8 | 11.3 | 0.00 | 0.00 | 0.00 | 49 | 1015.7 |
| 20260901131205 | 32 | 111 | 3.2 | 6.4 | 0.00 | 0.00 | 0.00 | 49 | 1015.6 |
| 20260901131011 | 32 | 76 | 3.2 | 9.7 | 0.00 | 0.00 | 0.00 | 49 | 1015.7 |
| 20260901130811 | 32 | 0 | 3.2 | 11.3 | 0.00 | 0.00 | 0.00 | 49 | 1015.7 |
| 20260901130608 | 32 | 274 | 3.2 | 11.3 | 0.00 | 0.00 | 0.00 | 49 | 1015.8 |
| 20260901130407 | 32 | 203 | 3.2 | 11.3 | 0.00 | 0.00 | 0.00 | 49 | 1015.8 |
| 20260901130206 | 32 | 283 | 6.4 | 11.3 | 0.00 | 0.00 | 0.00 | 49 | 1015.8 |
| 20260901130007 | 32 | 316 | 4.8 | 11.3 | 0.00 | 0.00 | 0.00 | 49 | 1015.9 |
| 20260901125803 | 32 | 243 | 3.2 | 9.7 | 0.00 | 0.00 | 0.00 | 49 | 1015.8 |
| 20260901125604 | 32 | 224 | 1.6 | 19.3 | 0.00 | 0.00 | 0.00 | 49 | 1015.8 |
| 20260901125404 | 32 | 203 | 1.6 | 19.3 | 0.00 | 0.00 | 0.00 | 50 | 1015.9 |
| 20260901125204 | 32 | 300 | 0.0 | 19.3 | 0.00 | 0.00 | 0.00 | 50 | 1015.9 |
| 20260901125014 | 32 | 0 | 1.6 | 19.3 | 0.00 | 0.00 | 0.00 | 49 | 1016.0 |
| 20260901124803 | 32 | 0 | 9.7 | 19.3 | 0.00 | 0.00 | 0.00 | 49 | 1015.9 |
| 20260901124602 | 32 | 323 | 4.8 | 9.7 | 0.00 | 0.00 | 0.00 | 50 | 1015.9 |
| 20260901124403 | 32 | 317 | 6.4 | 9.7 | 0.00 | 0.00 | 0.00 | 50 | 1015.9 |
| 20260901124205 | 32 | 0 | 6.4 | 9.7 | 0.00 | 0.00 | 0.00 | 50 | 1015.9 |
| 20260901124015 | 32 | 4 | 3.2 | 8.0 | 0.00 | 0.00 | 0.00 | 51 | 1016.0 |
| 20260901123800 | 31 | 341 | 1.6 | 16.1 | 0.00 | 0.00 | 0.00 | 50 | 1016.0 |
| 20260901123601 | 31 | 69 | 4.8 | 16.1 | 0.00 | 0.00 | 0.00 | 50 | 1015.9 |
| 20260901123402 | 31 | 54 | 3.2 | 16.1 | 0.00 | 0.00 | 0.00 | 51 | 1016.0 |
| 20260901123200 | 31 | 118 | 8.0 | 16.1 | 0.00 | 0.00 | 0.00 | 51 | 1015.9 |
| 20260901122949 | 31 | 351 | 11.3 | 16.1 | 0.00 | 0.00 | 0.00 | 51 | 1016.0 |
| 20260901122749 | 32 | 0 | 8.0 | 16.1 | 0.00 | 0.00 | 0.00 | 51 | 1016.1 |
| 20260901122547 | 32 | 0 | 8.0 | 14.5 | 0.00 | 0.00 | 0.00 | 50 | 1016.1 |
| 20260901122347 | 31 | 286 | 1.6 | 6.4 | 0.00 | 0.00 | 0.00 | 51 | 1016.1 |
| 20260901122146 | 31 | 312 | 0.0 | 9.7 | 0.00 | 0.00 | 0.00 | 51 | 1016.1 |
| 20260901121952 | 31 | 312 | 1.6 | 9.7 | 0.00 | 0.00 | 0.00 | 52 | 1016.2 |
| 20260901121751 | 31 | 264 | 1.6 | 9.7 | 0.00 | 0.00 | 0.00 | 52 | 1016.1 |
| 20260901121550 | 31 | 302 | 1.6 | 14.5 | 0.00 | 0.00 | 0.00 | 52 | 1016.2 |
| 20260901121348 | 31 | 275 | 6.4 | 16.1 | 0.00 | 0.00 | 0.00 | 52 | 1016.2 |
| 20260901121149 | 31 | 310 | 3.2 | 16.1 | 0.00 | 0.00 | 0.00 | 52 | 1016.3 |
| 20260901120950 | 31 | 244 | 1.6 | 16.1 | 0.00 | 0.00 | 0.00 | 52 | 1016.3 |
| 20260901120742 | 31 | 233 | 6.4 | 16.1 | 0.00 | 0.00 | 0.00 | 51 | 1016.2 |
| 20260901120540 | 31 | 250 | 8.0 | 16.1 | 0.00 | 0.00 | 0.00 | 51 | 1016.3 |
| 20260901120341 | 31 | 305 | 8.0 | 14.5 | 0.00 | 0.00 | 0.00 | 52 | 1016.3 |
| 20260901120139 | 31 | 323 | 4.8 | 14.5 | 0.00 | 0.00 | 0.00 | 52 | 1016.2 |
| 20260901115939 | 31 | 248 | 6.4 | 11.3 | 0.00 | 0.00 | 0.00 | 52 | 1016.3 |
| 20260901115736 | 31 | 59 | 3.2 | 9.7 | 0.00 | 0.00 | 0.00 | 52 | 1016.3 |
| 20260901115536 | 31 | 334 | 1.6 | 9.7 | 0.00 | 0.00 | 0.00 | 52 | 1016.3 |
| 20260901115335 | 31 | 0 | 1.6 | 9.7 | 0.00 | 0.00 | 0.00 | 52 | 1016.3 |
| 20260901115138 | 31 | 59 | 4.8 | 9.7 | 0.00 | 0.00 | 0.00 | 52 | 1016.3 |
| 20260901114936 | 31 | 82 | 4.8 | 9.7 | 0.00 | 0.00 | 0.00 | 52 | 1016.4 |
| 20260901114736 | 31 | 103 | 6.4 | 9.7 | 0.00 | 0.00 | 0.00 | 52 | 1016.3 |
| 20260901114530 | 31 | 80 | 0.0 | 8.0 | 0.00 | 0.00 | 0.00 | 52 | 1016.4 |
| 20260901114329 | 31 | 154 | 1.6 | 8.0 | 0.00 | 0.00 | 0.00 | 53 | 1016.4 |
| 20260901114129 | 31 | 138 | 3.2 | 16.1 | 0.00 | 0.00 | 0.00 | 53 | 1016.3 |
| 20260901113928 | 30 | 87 | 3.2 | 16.1 | 0.00 | 0.00 | 0.00 | 54 | 1016.3 |
| 20260901113730 | 30 | 296 | 0.0 | 16.1 | 0.00 | 0.00 | 0.00 | 53 | 1016.4 |
| 20260901113529 | 30 | 264 | 3.2 | 17.7 | 0.00 | 0.00 | 0.00 | 53 | 1016.4 |
| 20260901113329 | 30 | 0 | 9.7 | 17.7 | 0.00 | 0.00 | 0.00 | 54 | 1016.4 |
| 20260901113136 | 30 | 13 | 4.8 | 17.7 | 0.00 | 0.00 | 0.00 | 54 | 1016.4 |
| 20260901112933 | 30 | 0 | 3.2 | 17.7 | 0.00 | 0.00 | 0.00 | 53 | 1016.4 |
| 20260901112732 | 30 | 1 | 11.3 | 17.7 | 0.00 | 0.00 | 0.00 | 54 | 1016.4 |
| 20260901112529 | 30 | 0 | 6.4 | 14.5 | 0.00 | 0.00 | 0.00 | 54 | 1016.4 |
| 20260901112330 | 30 | 0 | 1.6 | 14.5 | 0.00 | 0.00 | 0.00 | 54 | 1016.4 |
| 20260901112129 | 30 | 221 | 4.8 | 16.1 | 0.00 | 0.00 | 0.00 | 54 | 1016.5 |
| 20260901111929 | 30 | 293 | 4.8 | 16.1 | 0.00 | 0.00 | 0.00 | 54 | 1016.4 |
| 20260901111731 | 30 | 90 | 3.2 | 16.1 | 0.00 | 0.00 | 0.00 | 54 | 1016.4 |
| 20260901111530 | 30 | 49 | 3.2 | 16.1 | 0.00 | 0.00 | 0.00 | 54 | 1016.4 |
| 20260901111330 | 30 | 350 | 4.8 | 16.1 | 0.00 | 0.00 | 0.00 | 54 | 1016.4 |
| 20260901111132 | 30 | 329 | 8.0 | 14.5 | 0.00 | 0.00 | 0.00 | 54 | 1016.5 |
| 20260901110929 | 30 | 341 | 1.6 | 9.7 | 0.00 | 0.00 | 0.00 | 54 | 1016.4 |
| 20260901110732 | 30 | 73 | 3.2 | 9.7 | 0.00 | 0.00 | 0.00 | 55 | 1016.4 |
| 20260901110529 | 30 | 42 | 6.4 | 9.7 | 0.00 | 0.00 | 0.00 | 55 | 1016.5 |
| 20260901110329 | 30 | 0 | 3.2 | 9.7 | 0.00 | 0.00 | 0.00 | 56 | 1016.4 |
| 20260901110130 | 30 | 63 | 0.0 | 8.0 | 0.00 | 0.00 | 0.00 | 56 | 1016.5 |
| 20260901105928 | 30 | 63 | 0.0 | 8.0 | 0.00 | 0.00 | 0.00 | 56 | 1016.5 |
| 20260901105729 | 30 | 0 | 3.2 | 8.0 | 0.00 | 0.00 | 0.00 | 56 | 1016.5 |
| 20260901105528 | 30 | 307 | 6.4 | 8.0 | 0.00 | 0.00 | 0.00 | 56 | 1016.6 |
| 20260901105332 | 30 | 241 | 1.6 | 16.1 | 0.00 | 0.00 | 0.00 | 57 | 1016.5 |
| 20260901105115 | 30 | 286 | 0.0 | 16.1 | 0.00 | 0.00 | 0.00 | 57 | 1016.5 |
| 20260901104915 | 30 | 286 | 1.6 | 16.1 | 0.00 | 0.00 | 0.00 | 56 | 1016.6 |
| 20260901104715 | 30 | 289 | 4.8 | 16.1 | 0.00 | 0.00 | 0.00 | 57 | 1016.6 |
| 20260901104523 | 29 | 307 | 8.0 | 16.1 | 0.00 | 0.00 | 0.00 | 57 | 1016.6 |
| 20260901104315 | 29 | 16 | 4.8 | 11.3 | 0.00 | 0.00 | 0.00 | 57 | 1016.6 |
| 20260901104113 | 29 | 0 | 6.4 | 8.0 | 0.00 | 0.00 | 0.00 | 57 | 1016.6 |
| 20260901103910 | 29 | 331 | 1.6 | 9.7 | 0.00 | 0.00 | 0.00 | 57 | 1016.6 |
| 20260901103712 | 29 | 324 | 3.2 | 9.7 | 0.00 | 0.00 | 0.00 | 56 | 1016.6 |
| 20260901103524 | 29 | 272 | 3.2 | 14.5 | 0.00 | 0.00 | 0.00 | 57 | 1016.6 |
| 20260901103305 | 29 | 351 | 4.8 | 14.5 | 0.00 | 0.00 | 0.00 | 56 | 1016.7 |
| 20260901103103 | 29 | 299 | 4.8 | 14.5 | 0.00 | 0.00 | 0.00 | 56 | 1016.6 |
| 20260901102903 | 29 | 278 | 8.0 | 14.5 | 0.00 | 0.00 | 0.00 | 56 | 1016.7 |
| 20260901102703 | 30 | 298 | 8.0 | 14.5 | 0.00 | 0.00 | 0.00 | 56 | 1016.7 |
| 20260901102501 | 30 | 180 | 0.0 | 6.4 | 0.00 | 0.00 | 0.00 | 56 | 1016.6 |
| 20260901102300 | 29 | 189 | 3.2 | 8.0 | 0.00 | 0.00 | 0.00 | 56 | 1016.7 |
| 20260901102105 | 29 | 217 | 1.6 | 11.3 | 0.00 | 0.00 | 0.00 | 56 | 1016.7 |
| 20260901101902 | 29 | 250 | 1.6 | 11.3 | 0.00 | 0.00 | 0.00 | 57 | 1016.8 |
| 20260901101703 | 29 | 298 | 1.6 | 11.3 | 0.00 | 0.00 | 0.00 | 57 | 1016.7 |
| 20260901101514 | 29 | 343 | 3.2 | 11.3 | 0.00 | 0.00 | 0.00 | 57 | 1016.7 |
| 20260901101303 | 29 | 290 | 6.4 | 11.3 | 0.00 | 0.00 | 0.00 | 57 | 1016.7 |
| 20260901101055 | 29 | 358 | 1.6 | 14.5 | 0.00 | 0.00 | 0.00 | 57 | 1016.7 |
| 20260901100851 | 29 | 337 | 0.0 | 14.5 | 0.00 | 0.00 | 0.00 | 57 | 1016.7 |
| 20260901100653 | 29 | 0 | 6.4 | 14.5 | 0.00 | 0.00 | 0.00 | 57 | 1016.9 |
| 20260901100438 | 29 | 341 | 6.4 | 14.5 | 0.00 | 0.00 | 0.00 | 58 | 1016.7 |
| 20260901100235 | 29 | 0 | 1.6 | 6.4 | 0.00 | 0.00 | 0.00 | 59 | 1016.9 |
| 20260901100047 | 29 | 180 | 0.0 | 9.7 | 0.00 | 0.00 | 0.00 | 59 | 1016.7 |
| 20260901095836 | 28 | 180 | 0.0 | 9.7 | 0.00 | 0.00 | 0.00 | 59 | 1016.8 |
| 20260901095640 | 28 | 180 | 1.6 | 9.7 | 0.00 | 0.00 | 0.00 | 59 | 1016.8 |
| 20260901095437 | 28 | 285 | 1.6 | 9.7 | 0.00 | 0.00 | 0.00 | 59 | 1016.9 |
| 20260901095233 | 28 | 343 | 3.2 | 9.7 | 0.00 | 0.00 | 0.00 | 59 | 1016.8 |
| 20260901095033 | 28 | 353 | 1.6 | 8.0 | 0.00 | 0.00 | 0.00 | 60 | 1016.9 |
| 20260901094833 | 28 | 28 | 1.6 | 8.0 | 0.00 | 0.00 | 0.00 | 60 | 1017.1 |
| 20260901094637 | 28 | 223 | 1.6 | 8.0 | 0.00 | 0.00 | 0.00 | 60 | 1016.9 |
| 20260901094441 | 28 | 305 | 1.6 | 8.0 | 0.00 | 0.00 | 0.00 | 60 | 1017.1 |
| 20260901094246 | 28 | 326 | 1.6 | 8.0 | 0.00 | 0.00 | 0.00 | 60 | 1017.1 |
| 20260901094040 | 28 | 223 | 1.6 | 8.0 | 0.00 | 0.00 | 0.00 | 60 | 1017.1 |
| 20260901093836 | 28 | 199 | 3.2 | 8.0 | 0.00 | 0.00 | 0.00 | 60 | 1017.1 |
| 20260901093639 | 28 | 133 | 3.2 | 8.0 | 0.00 | 0.00 | 0.00 | 60 | 1017.1 |
| 20260901093436 | 28 | 251 | 1.6 | 6.4 | 0.00 | 0.00 | 0.00 | 61 | 1017.1 |
| 20260901093235 | 28 | 159 | 1.6 | 6.4 | 0.00 | 0.00 | 0.00 | 61 | 1017.1 |
| 20260901093034 | 28 | 151 | 1.6 | 6.4 | 0.00 | 0.00 | 0.00 | 61 | 1017.2 |
| 20260901092833 | 28 | 147 | 1.6 | 14.5 | 0.00 | 0.00 | 0.00 | 61 | 1017.2 |
| 20260901092638 | 27 | 259 | 1.6 | 14.5 | 0.00 | 0.00 | 0.00 | 61 | 1017.2 |
| 20260901092437 | 27 | 306 | 1.6 | 14.5 | 0.00 | 0.00 | 0.00 | 62 | 1017.3 |
| 20260901092236 | 27 | 289 | 0.0 | 14.5 | 0.00 | 0.00 | 0.00 | 62 | 1017.2 |
| 20260901092034 | 27 | 243 | 6.4 | 14.5 | 0.00 | 0.00 | 0.00 | 61 | 1017.2 |
| 20260901091833 | 27 | 281 | 1.6 | 9.7 | 0.00 | 0.00 | 0.00 | 62 | 1017.2 |
| 20260901091650 | 27 | 265 | 3.2 | 9.7 | 0.00 | 0.00 | 0.00 | 62 | 1017.1 |
| 20260901091434 | 27 | 279 | 3.2 | 11.3 | 0.00 | 0.00 | 0.00 | 62 | 1017.2 |
| 20260901091233 | 27 | 8 | 1.6 | 11.3 | 0.00 | 0.00 | 0.00 | 62 | 1017.2 |
| 20260901091036 | 27 | 61 | 3.2 | 11.3 | 0.00 | 0.00 | 0.00 | 62 | 1017.2 |
| 20260901090841 | 27 | 30 | 4.8 | 11.3 | 0.00 | 0.00 | 0.00 | 62 | 1017.2 |
| 20260901090642 | 27 | 0 | 8.0 | 11.3 | 0.00 | 0.00 | 0.00 | 63 | 1017.2 |
| 20260901090438 | 27 | 353 | 4.8 | 11.3 | 0.00 | 0.00 | 0.00 | 63 | 1017.2 |
| 20260901090234 | 27 | 206 | 1.6 | 11.3 | 0.00 | 0.00 | 0.00 | 62 | 1017.2 |
| 20260901090050 | 27 | 286 | 6.4 | 16.1 | 0.00 | 0.00 | 0.00 | 62 | 1017.1 |
| 20260901085834 | 27 | 309 | 6.4 | 16.1 | 0.00 | 0.00 | 0.00 | 62 | 1017.2 |
| 20260901085636 | 27 | 275 | 6.4 | 16.1 | 0.00 | 0.00 | 0.00 | 62 | 1017.2 |
| 20260901085435 | 27 | 305 | 3.2 | 16.1 | 0.00 | 0.00 | 0.00 | 61 | 1017.3 |
| 20260901085238 | 27 | 327 | 8.0 | 16.1 | 0.00 | 0.00 | 0.00 | 61 | 1017.2 |
| 20260901085033 | 27 | 255 | 1.6 | 8.0 | 0.00 | 0.00 | 0.00 | 62 | 1017.2 |
| 20260901084833 | 27 | 185 | 1.6 | 9.7 | 0.00 | 0.00 | 0.00 | 62 | 1017.2 |
| 20260901084636 | 27 | 231 | 3.2 | 9.7 | 0.00 | 0.00 | 0.00 | 62 | 1017.2 |
| 20260901084434 | 27 | 266 | 4.8 | 9.7 | 0.00 | 0.00 | 0.00 | 61 | 1017.2 |
| 20260901084237 | 27 | 269 | 4.8 | 9.7 | 0.00 | 0.00 | 0.00 | 61 | 1017.2 |
| 20260901084034 | 27 | 289 | 6.4 | 9.7 | 0.00 | 0.00 | 0.00 | 61 | 1017.2 |
| 20260901083834 | 27 | 299 | 1.6 | 9.7 | 0.00 | 0.00 | 0.00 | 61 | 1017.2 |
| 20260901083635 | 27 | 288 | 1.6 | 9.7 | 0.00 | 0.00 | 0.00 | 60 | 1017.2 |
| 20260901083434 | 27 | 306 | 1.6 | 9.7 | 0.00 | 0.00 | 0.00 | 60 | 1017.2 |
| 20260901083234 | 27 | 259 | 3.2 | 9.7 | 0.00 | 0.00 | 0.00 | 60 | 1017.2 |
| 20260901083036 | 27 | 358 | 4.8 | 9.7 | 0.00 | 0.00 | 0.00 | 60 | 1017.1 |
| 20260901082830 | 27 | 18 | 4.8 | 9.7 | 0.00 | 0.00 | 0.00 | 60 | 1017.1 |
| 20260901082645 | 27 | 0 | 4.8 | 6.4 | 0.00 | 0.00 | 0.00 | 60 | 1017.1 |
| 20260901082436 | 27 | 281 | 1.6 | 6.4 | 0.00 | 0.00 | 0.00 | 60 | 1016.9 |
| 20260901082231 | 27 | 281 | 0.0 | 4.8 | 0.00 | 0.00 | 0.00 | 60 | 1017.1 |
| 20260901082033 | 27 | 281 | 0.0 | 8.0 | 0.00 | 0.00 | 0.00 | 60 | 1016.9 |
| 20260901081829 | 27 | 281 | 0.0 | 8.0 | 0.00 | 0.00 | 0.00 | 61 | 1016.9 |
| 20260901081630 | 26 | 281 | 1.6 | 8.0 | 0.00 | 0.00 | 0.00 | 61 | 1016.9 |
| 20260901081430 | 26 | 4 | 1.6 | 8.0 | 0.00 | 0.00 | 0.00 | 61 | 1016.9 |
| 20260901081229 | 26 | 1 | 3.2 | 8.0 | 0.00 | 0.00 | 0.00 | 62 | 1016.9 |
| 20260901081031 | 26 | 327 | 0.0 | 4.8 | 0.00 | 0.00 | 0.00 | 62 | 1016.9 |
| 20260901080829 | 26 | 279 | 1.6 | 6.4 | 0.00 | 0.00 | 0.00 | 62 | 1016.9 |
| 20260901080629 | 26 | 279 | 1.6 | 6.4 | 0.00 | 0.00 | 0.00 | 62 | 1016.8 |
| 20260901080430 | 26 | 275 | 0.0 | 6.4 | 0.00 | 0.00 | 0.00 | 62 | 1016.9 |
| 20260901080229 | 26 | 279 | 0.0 | 6.4 | 0.00 | 0.00 | 0.00 | 62 | 1016.9 |
| 20260901080045 | 26 | 290 | 1.6 | 6.4 | 0.00 | 0.00 | 0.00 | 62 | 1016.8 |
| 20260901075828 | 26 | 281 | 0.0 | 6.4 | 0.00 | 0.00 | 0.00 | 62 | 1016.8 |
| 20260901075627 | 26 | 276 | 1.6 | 6.4 | 0.00 | 0.00 | 0.00 | 63 | 1016.9 |
| 20260901075425 | 26 | 309 | 3.2 | 6.4 | 0.00 | 0.00 | 0.00 | 63 | 1016.7 |
| 20260901075228 | 26 | 0 | 1.6 | 9.7 | 0.00 | 0.00 | 0.00 | 63 | 1016.8 |
| 20260901075026 | 26 | 4 | 3.2 | 9.7 | 0.00 | 0.00 | 0.00 | 63 | 1016.8 |
| 20260901074822 | 26 | 228 | 1.6 | 9.7 | 0.00 | 0.00 | 0.00 | 64 | 1016.8 |
| 20260901074624 | 25 | 326 | 4.8 | 9.7 | 0.00 | 0.00 | 0.00 | 63 | 1016.7 |
| 20260901074415 | 25 | 320 | 6.4 | 9.7 | 0.00 | 0.00 | 0.00 | 63 | 1016.8 |
| 20260901074215 | 26 | 288 | 4.8 | 9.7 | 0.00 | 0.00 | 0.00 | 63 | 1016.7 |
| 20260901074021 | 25 | 254 | 1.6 | 9.7 | 0.00 | 0.00 | 0.00 | 63 | 1016.8 |
| 20260901073815 | 25 | 0 | 3.2 | 9.7 | 0.00 | 0.00 | 0.00 | 63 | 1016.7 |
| 20260901073617 | 25 | 0 | 3.2 | 9.7 | 0.00 | 0.00 | 0.00 | 63 | 1016.7 |
| 20260901073417 | 25 | 272 | 6.4 | 9.7 | 0.00 | 0.00 | 0.00 | 63 | 1016.7 |
| 20260901073223 | 25 | 298 | 3.2 | 6.4 | 0.00 | 0.00 | 0.00 | 63 | 1016.6 |
| 20260901073029 | 25 | 345 | 3.2 | 6.4 | 0.00 | 0.00 | 0.00 | 63 | 1016.7 |
| 20260901072820 | 25 | 159 | 1.6 | 6.4 | 0.00 | 0.00 | 0.00 | 64 | 1016.7 |
| 20260901072615 | 25 | 227 | 1.6 | 6.4 | 0.00 | 0.00 | 0.00 | 64 | 1016.7 |
| 20260901072417 | 25 | 199 | 3.2 | 6.4 | 0.00 | 0.00 | 0.00 | 64 | 1016.7 |
| 20260901072212 | 25 | 302 | 1.6 | 6.4 | 0.00 | 0.00 | 0.00 | 64 | 1016.7 |
| 20260901072018 | 25 | 274 | 3.2 | 6.4 | 0.00 | 0.00 | 0.00 | 64 | 1016.6 |
| 20260901071809 | 25 | 285 | 4.8 | 6.4 | 0.00 | 0.00 | 0.00 | 65 | 1016.6 |
| 20260901071606 | 25 | 298 | 1.6 | 6.4 | 0.00 | 0.00 | 0.00 | 65 | 1016.6 |
| 20260901071409 | 25 | 203 | 0.0 | 8.0 | 0.00 | 0.00 | 0.00 | 65 | 1016.6 |
| 20260901071209 | 25 | 179 | 1.6 | 8.0 | 0.00 | 0.00 | 0.00 | 65 | 1016.6 |
| 20260901071018 | 25 | 169 | 1.6 | 9.7 | 0.00 | 0.00 | 0.00 | 65 | 1016.6 |
| 20260901070807 | 25 | 165 | 3.2 | 9.7 | 0.00 | 0.00 | 0.00 | 65 | 1016.6 |
| 20260901070604 | 25 | 207 | 4.8 | 9.7 | 0.00 | 0.00 | 0.00 | 65 | 1016.6 |
| 20260901070409 | 25 | 237 | 4.8 | 9.7 | 0.00 | 0.00 | 0.00 | 65 | 1016.5 |
| 20260901070208 | 25 | 224 | 1.6 | 9.7 | 0.00 | 0.00 | 0.00 | 66 | 1016.5 |
| 20260901070041 | 25 | 330 | 1.6 | 6.4 | 0.00 | 0.00 | 0.00 | 66 | 1016.4 |
| 20260901065807 | 25 | 226 | 1.6 | 4.8 | 0.00 | 0.00 | 0.00 | 67 | 1016.5 |
| 20260901065603 | 24 | 226 | 0.0 | 4.8 | 0.00 | 0.00 | 0.00 | 67 | 1016.4 |
| 20260901065407 | 24 | 268 | 0.0 | 3.2 | 0.00 | 0.00 | 0.00 | 67 | 1016.4 |
| 20260901065204 | 24 | 196 | 0.0 | 4.8 | 0.00 | 0.00 | 0.00 | 68 | 1016.4 |
| 20260901065015 | 24 | 196 | 0.0 | 4.8 | 0.00 | 0.00 | 0.00 | 68 | 1016.4 |
| 20260901064806 | 24 | 196 | 0.0 | 4.8 | 0.00 | 0.00 | 0.00 | 68 | 1016.4 |
| 20260901064600 | 24 | 196 | 1.6 | 4.8 | 0.00 | 0.00 | 0.00 | 68 | 1016.4 |
| 20260901064400 | 24 | 196 | 3.2 | 6.4 | 0.00 | 0.00 | 0.00 | 68 | 1016.4 |
| 20260901064209 | 24 | 234 | 3.2 | 8.0 | 0.00 | 0.00 | 0.00 | 69 | 1016.4 |
| 20260901064003 | 24 | 228 | 3.2 | 8.0 | 0.00 | 0.00 | 0.00 | 69 | 1016.4 |
| 20260901063801 | 24 | 203 | 1.6 | 8.0 | 0.00 | 0.00 | 0.00 | 69 | 1016.4 |
| 20260901063600 | 23 | 216 | 3.2 | 8.0 | 0.00 | 0.00 | 0.00 | 69 | 1016.5 |
| 20260901063407 | 23 | 214 | 3.2 | 8.0 | 0.00 | 0.00 | 0.00 | 69 | 1016.4 |
| 20260901063158 | 23 | 221 | 3.2 | 9.7 | 0.00 | 0.00 | 0.00 | 70 | 1016.4 |
| 20260901062956 | 23 | 233 | 3.2 | 9.7 | 0.00 | 0.00 | 0.00 | 70 | 1016.4 |
| 20260901062756 | 23 | 223 | 3.2 | 9.7 | 0.00 | 0.00 | 0.00 | 70 | 1016.4 |
| 20260901062555 | 23 | 219 | 4.8 | 11.3 | 0.00 | 0.00 | 0.00 | 70 | 1016.4 |
| 20260901062356 | 23 | 231 | 4.8 | 11.3 | 0.00 | 0.00 | 0.00 | 70 | 1016.4 |
| 20260901062154 | 23 | 213 | 3.2 | 11.3 | 0.00 | 0.00 | 0.00 | 71 | 1016.4 |
| 20260901061954 | 23 | 186 | 3.2 | 11.3 | 0.00 | 0.00 | 0.00 | 71 | 1016.3 |
| 20260901061754 | 23 | 186 | 4.8 | 11.3 | 0.00 | 0.00 | 0.00 | 71 | 1016.4 |
| 20260901061554 | 23 | 185 | 6.4 | 9.7 | 0.00 | 0.00 | 0.00 | 71 | 1016.5 |
| 20260901061355 | 23 | 176 | 3.2 | 11.3 | 0.00 | 0.00 | 0.00 | 71 | 1016.4 |
| 20260901061150 | 23 | 257 | 4.8 | 14.5 | 0.00 | 0.00 | 0.00 | 71 | 1016.5 |
| 20260901060951 | 23 | 202 | 3.2 | 14.5 | 0.00 | 0.00 | 0.00 | 71 | 1016.5 |
| 20260901060750 | 23 | 203 | 6.4 | 14.5 | 0.00 | 0.00 | 0.00 | 71 | 1016.4 |
| 20260901060543 | 23 | 199 | 6.4 | 14.5 | 0.00 | 0.00 | 0.00 | 71 | 1016.5 |
| 20260901060340 | 23 | 223 | 6.4 | 14.5 | 0.00 | 0.00 | 0.00 | 72 | 1016.4 |
| 20260901060142 | 23 | 245 | 6.4 | 9.7 | 0.00 | 0.00 | 0.00 | 72 | 1016.4 |
| 20260901055940 | 23 | 223 | 3.2 | 9.7 | 0.00 | 0.00 | 0.00 | 71 | 1016.3 |
| 20260901055739 | 23 | 196 | 4.8 | 9.7 | 0.00 | 0.00 | 0.00 | 72 | 1016.4 |
| 20260901055536 | 23 | 193 | 3.2 | 6.4 | 0.00 | 0.00 | 0.00 | 72 | 1016.4 |
| 20260901055337 | 23 | 212 | 3.2 | 6.4 | 0.00 | 0.00 | 0.00 | 72 | 1016.3 |
| 20260901055135 | 23 | 193 | 3.2 | 6.4 | 0.00 | 0.00 | 0.00 | 71 | 1016.3 |
| 20260901054936 | 23 | 206 | 3.2 | 8.0 | 0.00 | 0.00 | 0.00 | 72 | 1016.4 |
| 20260901054734 | 23 | 223 | 3.2 | 8.0 | 0.00 | 0.00 | 0.00 | 72 | 1016.3 |
| 20260901054534 | 23 | 217 | 3.2 | 8.0 | 0.00 | 0.00 | 0.00 | 71 | 1016.3 |
| 20260901054334 | 23 | 220 | 1.6 | 8.0 | 0.00 | 0.00 | 0.00 | 72 | 1016.3 |
| 20260901054141 | 23 | 217 | 4.8 | 8.0 | 0.00 | 0.00 | 0.00 | 72 | 1016.3 |
| 20260901053939 | 23 | 217 | 3.2 | 8.0 | 0.00 | 0.00 | 0.00 | 72 | 1016.2 |
| 20260901053734 | 23 | 162 | 1.6 | 8.0 | 0.00 | 0.00 | 0.00 | 72 | 1016.2 |
| 20260901053534 | 23 | 235 | 1.6 | 9.7 | 0.00 | 0.00 | 0.00 | 72 | 1016.2 |
| 20260901053334 | 23 | 210 | 1.6 | 9.7 | 0.00 | 0.00 | 0.00 | 72 | 1016.1 |
| 20260901053131 | 23 | 216 | 3.2 | 11.3 | 0.00 | 0.00 | 0.00 | 72 | 1016.1 |
| 20260901052930 | 23 | 214 | 4.8 | 11.3 | 0.00 | 0.00 | 0.00 | 72 | 1016.1 |
| 20260901052732 | 23 | 172 | 6.4 | 14.5 | 0.00 | 0.00 | 0.00 | 72 | 1016.0 |
| 20260901052532 | 23 | 195 | 4.8 | 14.5 | 0.00 | 0.00 | 0.00 | 72 | 1016.0 |
| 20260901052330 | 23 | 231 | 6.4 | 17.7 | 0.00 | 0.00 | 0.00 | 72 | 1016.0 |
| 20260901052127 | 23 | 226 | 4.8 | 17.7 | 0.00 | 0.00 | 0.00 | 72 | 1016.0 |
| 20260901051928 | 23 | 197 | 8.0 | 17.7 | 0.00 | 0.00 | 0.00 | 72 | 1016.0 |
| 20260901051729 | 23 | 188 | 6.4 | 17.7 | 0.00 | 0.00 | 0.00 | 72 | 1015.9 |
| 20260901051519 | 23 | 178 | 8.0 | 17.7 | 0.00 | 0.00 | 0.00 | 72 | 1016.0 |
| 20260901051308 | 23 | 231 | 4.8 | 16.1 | 0.00 | 0.00 | 0.00 | 72 | 1015.8 |
| 20260901051107 | 23 | 207 | 6.4 | 16.1 | 0.00 | 0.00 | 0.00 | 72 | 1015.9 |
| 20260901050906 | 23 | 244 | 6.4 | 20.9 | 0.00 | 0.00 | 0.00 | 72 | 1015.9 |
| 20260901050710 | 23 | 233 | 6.4 | 20.9 | 0.00 | 0.00 | 0.00 | 72 | 1015.9 |
| 20260901050523 | 23 | 221 | 8.0 | 20.9 | 0.00 | 0.00 | 0.00 | 73 | 1015.9 |
| 20260901050305 | 23 | 207 | 6.4 | 20.9 | 0.00 | 0.00 | 0.00 | 73 | 1015.9 |
| 20260901050118 | 23 | 178 | 9.7 | 20.9 | 0.00 | 0.00 | 0.00 | 73 | 1015.9 |
| 20260901045905 | 23 | 192 | 9.7 | 22.5 | 0.00 | 0.00 | 0.00 | 73 | 1015.9 |
| 20260901045702 | 23 | 180 | 8.0 | 22.5 | 0.00 | 0.00 | 0.00 | 73 | 1015.8 |
| 20260901045516 | 23 | 158 | 9.7 | 22.5 | 0.00 | 0.00 | 0.00 | 73 | 1015.8 |
| 20260901045306 | 23 | 214 | 8.0 | 22.5 | 0.00 | 0.00 | 0.00 | 73 | 1015.8 |
| 20260901045104 | 23 | 227 | 11.3 | 22.5 | 0.00 | 0.00 | 0.00 | 73 | 1015.7 |
| 20260901044907 | 23 | 204 | 8.0 | 19.3 | 0.00 | 0.00 | 0.00 | 73 | 1015.6 |
| 20260901044704 | 23 | 171 | 9.7 | 19.3 | 0.00 | 0.00 | 0.00 | 73 | 1015.8 |
| 20260901044458 | 23 | 204 | 11.3 | 20.9 | 0.00 | 0.00 | 0.00 | 73 | 1015.8 |